Wetterdaten: Dienstag, 28.07.2009
Datum Zeit Temp. Innen Temp. Aussen UV X Diff Temp. Feuchte Inne Feuchte Auss Sonnenschein Luftdruck Regen ab 0,1 Wind Sonnenschein Windben
28.07.2009 00:00 22,8 C 16,4 C 0,0 UV-I 0,0 C 55 % 75 % 0 % 1017,1 hPa 0,0 l/m 1,9 km/h (1 Bft) 0 min 0,0 km/h (0 Bft)
28.07.2009 00:02 22,8 C 16,5 C 0,0 UV-I 0,0 C 55 % 76 % 0 % 1017,1 hPa 0,0 l/m 1,9 km/h (1 Bft) 0 min 0,0 km/h (0 Bft)
28.07.2009 00:04 22,8 C 16,5 C 0,0 UV-I 0,0 C 55 % 76 % 0 % 1017,1 hPa 0,0 l/m 2,6 km/h (1 Bft) 0 min 2,9 km/h (1 Bft)
28.07.2009 00:06 22,8 C 16,3 C 0,0 UV-I 0,0 C 55 % 76 % 0 % 1017,1 hPa 0,0 l/m 2,4 km/h (1 Bft) 0 min 4,8 km/h (1 Bft)
28.07.2009 00:08 22,8 C 16,3 C 0,0 UV-I 0,0 C 55 % 76 % 0 % 1017,1 hPa 0,0 l/m 2,2 km/h (1 Bft) 0 min 4,8 km/h (1 Bft)
28.07.2009 00:10 22,7 C 16,3 C 0,0 UV-I 0,0 C 55 % 76 % 0 % 1017,1 hPa 0,0 l/m 1,7 km/h (1 Bft) 0 min 0,0 km/h (0 Bft)
28.07.2009 00:12 22,7 C 16,3 C 0,0 UV-I 0,0 C 55 % 76 % 0 % 1017,1 hPa 0,0 l/m 1,7 km/h (1 Bft) 0 min 0,0 km/h (0 Bft)
28.07.2009 00:14 22,7 C 16,2 C 0,0 UV-I 0,0 C 55 % 77 % 0 % 1017,1 hPa 0,0 l/m 0,5 km/h (0 Bft) 0 min 0,0 km/h (0 Bft)
28.07.2009 00:16 22,7 C 16,1 C 0,0 UV-I 0,0 C 55 % 77 % 0 % 1017,4 hPa 0,0 l/m 0,5 km/h (0 Bft) 0 min 2,6 km/h (1 Bft)
28.07.2009 00:20 22,7 C 16,0 C 0,0 UV-I 0,0 C 56 % 77 % 0 % 1017,4 hPa 0,0 l/m 0,2 km/h (0 Bft) 0 min 2,6 km/h (1 Bft)
28.07.2009 00:24 22,7 C 15,9 C 0,0 UV-I 0,0 C 56 % 77 % 0 % 1017,4 hPa 0,0 l/m 0,2 km/h (0 Bft) 0 min 0,0 km/h (0 Bft)
28.07.2009 00:28 22,6 C 15,9 C 0,0 UV-I 0,0 C 56 % 77 % 0 % 1017,4 hPa 0,0 l/m 0,0 km/h (0 Bft) 0 min 0,0 km/h (0 Bft)
28.07.2009 00:32 22,6 C 15,8 C 0,0 UV-I 0,0 C 56 % 77 % 0 % 1017,4 hPa 0,0 l/m 0,0 km/h (0 Bft) 0 min 0,0 km/h (0 Bft)
28.07.2009 00:34 22,6 C 15,7 C 0,0 UV-I 0,0 C 56 % 78 % 0 % 1017,4 hPa 0,0 l/m 0,0 km/h (0 Bft) 0 min 0,0 km/h (0 Bft)
28.07.2009 00:36 22,6 C 15,7 C 0,0 UV-I 0,0 C 56 % 78 % 0 % 1017,5 hPa 0,0 l/m 0,0 km/h (0 Bft) 0 min 0,0 km/h (0 Bft)
28.07.2009 00:38 22,6 C 15,6 C 0,0 UV-I 0,0 C 56 % 78 % 0 % 1017,5 hPa 0,0 l/m 0,0 km/h (0 Bft) 0 min 0,0 km/h (0 Bft)
28.07.2009 00:40 22,6 C 15,7 C 0,0 UV-I 0,0 C 56 % 78 % 0 % 1017,5 hPa 0,0 l/m 0,0 km/h (0 Bft) 0 min 0,0 km/h (0 Bft)
28.07.2009 00:44 22,6 C 15,5 C 0,0 UV-I 0,0 C 56 % 78 % 0 % 1017,5 hPa 0,0 l/m 0,0 km/h (0 Bft) 0 min 0,0 km/h (0 Bft)
28.07.2009 00:46 22,6 C 15,4 C 0,0 UV-I 0,0 C 56 % 78 % 0 % 1017,5 hPa 0,0 l/m 0,0 km/h (0 Bft) 0 min 0,0 km/h (0 Bft)
28.07.2009 00:50 22,5 C 15,4 C 0,0 UV-I 0,0 C 56 % 78 % 0 % 1017,5 hPa 0,0 l/m 0,0 km/h (0 Bft) 0 min 0,0 km/h (0 Bft)
28.07.2009 00:52 22,5 C 15,3 C 0,0 UV-I 0,0 C 56 % 79 % 0 % 1017,5 hPa 0,0 l/m 0,0 km/h (0 Bft) 0 min 0,0 km/h (0 Bft)
28.07.2009 00:54 22,5 C 15,3 C 0,0 UV-I 0,0 C 55 % 79 % 0 % 1017,5 hPa 0,0 l/m 0,0 km/h (0 Bft) 0 min 0,0 km/h (0 Bft)
28.07.2009 00:58 22,5 C 15,3 C 0,0 UV-I 0,0 C 55 % 79 % 0 % 1017,6 hPa 0,0 l/m 0,0 km/h (0 Bft) 0 min 0,0 km/h (0 Bft)
28.07.2009 01:02 22,5 C 15,2 C 0,0 UV-I 0,0 C 55 % 79 % 0 % 1017,6 hPa 0,0 l/m 0,0 km/h (0 Bft) 0 min 0,0 km/h (0 Bft)
28.07.2009 01:04 22,5 C 15,1 C 0,0 UV-I 0,0 C 55 % 80 % 0 % 1017,6 hPa 0,0 l/m 0,0 km/h (0 Bft) 0 min 0,0 km/h (0 Bft)
28.07.2009 01:06 22,5 C 15,1 C 0,0 UV-I 0,0 C 55 % 80 % 0 % 1017,6 hPa 0,0 l/m 0,0 km/h (0 Bft) 0 min 0,0 km/h (0 Bft)
28.07.2009 01:08 22,4 C 15,1 C 0,0 UV-I 0,0 C 55 % 80 % 0 % 1017,6 hPa 0,0 l/m 0,0 km/h (0 Bft) 0 min 0,0 km/h (0 Bft)
28.07.2009 01:10 22,4 C 15,1 C 0,0 UV-I 0,0 C 55 % 80 % 0 % 1017,6 hPa 0,0 l/m 0,0 km/h (0 Bft) 0 min 2,9 km/h (1 Bft)
28.07.2009 01:12 22,4 C 14,9 C 0,0 UV-I 0,0 C 55 % 80 % 0 % 1017,6 hPa 0,0 l/m 0,0 km/h (0 Bft) 0 min 0,0 km/h (0 Bft)
28.07.2009 01:14 22,4 C 14,9 C 0,0 UV-I 0,0 C 55 % 80 % 0 % 1017,6 hPa 0,0 l/m 0,0 km/h (0 Bft) 0 min 0,0 km/h (0 Bft)
28.07.2009 01:16 22,4 C 14,9 C 0,0 UV-I 0,0 C 55 % 80 % 0 % 1018,1 hPa 0,0 l/m 0,0 km/h (0 Bft) 0 min 0,0 km/h (0 Bft)
28.07.2009 01:18 22,4 C 14,8 C 0,0 UV-I 0,0 C 55 % 80 % 0 % 1018,1 hPa 0,0 l/m 0,0 km/h (0 Bft) 0 min 0,0 km/h (0 Bft)
28.07.2009 01:20 22,4 C 14,8 C 0,0 UV-I 0,0 C 55 % 80 % 0 % 1018,1 hPa 0,0 l/m 0,0 km/h (0 Bft) 0 min 0,0 km/h (0 Bft)
28.07.2009 01:22 22,4 C 14,8 C 0,0 UV-I 0,0 C 55 % 80 % 0 % 1018,1 hPa 0,0 l/m 0,0 km/h (0 Bft) 0 min 0,0 km/h (0 Bft)
28.07.2009 01:24 22,4 C 14,7 C 0,0 UV-I 0,0 C 55 % 81 % 0 % 1018,1 hPa 0,0 l/m 0,0 km/h (0 Bft) 0 min 0,0 km/h (0 Bft)
28.07.2009 01:28 22,2 C 14,7 C 0,0 UV-I 0,0 C 55 % 81 % 0 % 1018,1 hPa 0,0 l/m 0,0 km/h (0 Bft) 0 min 0,0 km/h (0 Bft)
28.07.2009 01:30 22,3 C 14,7 C 0,0 UV-I 0,0 C 55 % 81 % 0 % 1018,1 hPa 0,0 l/m 0,0 km/h (0 Bft) 0 min 0,0 km/h (0 Bft)
28.07.2009 01:36 22,2 C 14,5 C 0,0 UV-I 0,0 C 55 % 81 % 0 % 1017,9 hPa 0,0 l/m 0,0 km/h (0 Bft) 0 min 0,0 km/h (0 Bft)
28.07.2009 01:38 22,3 C 14,5 C 0,0 UV-I 0,0 C 55 % 81 % 0 % 1017,9 hPa 0,0 l/m 0,0 km/h (0 Bft) 0 min 0,0 km/h (0 Bft)
28.07.2009 01:40 22,2 C 14,5 C 0,0 UV-I 0,0 C 55 % 81 % 0 % 1017,9 hPa 0,0 l/m 0,2 km/h (0 Bft) 0 min 5,3 km/h (1 Bft)
28.07.2009 01:42 22,2 C 14,5 C 0,0 UV-I 0,0 C 55 % 81 % 0 % 1017,9 hPa 0,0 l/m 0,2 km/h (0 Bft) 0 min 5,3 km/h (1 Bft)
28.07.2009 01:44 22,2 C 14,4 C 0,0 UV-I 0,0 C 55 % 81 % 0 % 1017,9 hPa 0,0 l/m 0,2 km/h (0 Bft) 0 min 0,0 km/h (0 Bft)
28.07.2009 01:50 22,2 C 14,4 C 0,0 UV-I 0,0 C 55 % 81 % 0 % 1017,9 hPa 0,0 l/m 0,2 km/h (0 Bft) 0 min 0,0 km/h (0 Bft)
28.07.2009 01:54 22,2 C 14,3 C 0,0 UV-I 0,0 C 55 % 82 % 0 % 1017,9 hPa 0,0 l/m 0,0 km/h (0 Bft) 0 min 2,9 km/h (1 Bft)
28.07.2009 01:56 22,2 C 14,3 C 0,0 UV-I 0,0 C 55 % 82 % 0 % 1017,9 hPa 0,0 l/m 0,0 km/h (0 Bft) 0 min 2,9 km/h (1 Bft)
28.07.2009 01:58 22,1 C 14,3 C 0,0 UV-I 0,0 C 55 % 82 % 0 % 1017,9 hPa 0,0 l/m 0,2 km/h (0 Bft) 0 min 0,0 km/h (0 Bft)
28.07.2009 02:04 22,0 C 14,3 C 0,0 UV-I 0,0 C 55 % 82 % 0 % 1017,9 hPa 0,0 l/m 0,5 km/h (0 Bft) 0 min 0,0 km/h (0 Bft)
28.07.2009 02:10 22,0 C 14,1 C 0,0 UV-I 0,0 C 55 % 83 % 0 % 1017,9 hPa 0,0 l/m 0,5 km/h (0 Bft) 0 min 3,1 km/h (1 Bft)
28.07.2009 02:12 22,0 C 14,1 C 0,0 UV-I 0,0 C 55 % 83 % 0 % 1017,9 hPa 0,0 l/m 0,5 km/h (0 Bft) 0 min 5,5 km/h (1 Bft)
28.07.2009 02:14 22,0 C 14,1 C 0,0 UV-I 0,0 C 55 % 83 % 0 % 1017,9 hPa 0,0 l/m 0,5 km/h (0 Bft) 0 min 0,0 km/h (0 Bft)
28.07.2009 02:16 22,0 C 14,1 C 0,0 UV-I 0,0 C 55 % 83 % 0 % 1018,0 hPa 0,0 l/m 0,5 km/h (0 Bft) 0 min 0,0 km/h (0 Bft)
28.07.2009 02:20 22,0 C 14,0 C 0,0 UV-I 0,0 C 55 % 83 % 0 % 1018,0 hPa 0,0 l/m 0,5 km/h (0 Bft) 0 min 2,4 km/h (1 Bft)
28.07.2009 02:22 22,0 C 14,0 C 0,0 UV-I 0,0 C 55 % 83 % 0 % 1018,0 hPa 0,0 l/m 0,5 km/h (0 Bft) 0 min 2,4 km/h (1 Bft)
28.07.2009 02:24 22,0 C 14,0 C 0,0 UV-I 0,0 C 55 % 83 % 0 % 1018,0 hPa 0,0 l/m 0,7 km/h (0 Bft) 0 min 5,1 km/h (1 Bft)
28.07.2009 02:28 21,9 C 14,1 C 0,0 UV-I 0,0 C 55 % 83 % 0 % 1018,0 hPa 0,0 l/m 1,4 km/h (1 Bft) 0 min 0,0 km/h (0 Bft)
28.07.2009 02:30 21,9 C 14,0 C 0,0 UV-I 0,0 C 55 % 83 % 0 % 1018,0 hPa 0,0 l/m 1,4 km/h (1 Bft) 0 min 2,9 km/h (1 Bft)
28.07.2009 02:32 21,9 C 14,0 C 0,0 UV-I 0,0 C 55 % 83 % 0 % 1018,0 hPa 0,0 l/m 1,4 km/h (1 Bft) 0 min 2,9 km/h (1 Bft)
28.07.2009 02:34 21,8 C 14,1 C 0,0 UV-I 0,0 C 55 % 83 % 0 % 1018,0 hPa 0,0 l/m 1,4 km/h (1 Bft) 0 min 2,6 km/h (1 Bft)
28.07.2009 02:40 21,8 C 13,9 C 0,0 UV-I 0,0 C 55 % 83 % 0 % 1018,2 hPa 0,0 l/m 1,2 km/h (1 Bft) 0 min 7,2 km/h (2 Bft)
28.07.2009 02:42 21,8 C 14,0 C 0,0 UV-I 0,0 C 55 % 83 % 0 % 1018,2 hPa 0,0 l/m 1,2 km/h (1 Bft) 0 min 9,1 km/h (2 Bft)
28.07.2009 02:44 21,8 C 13,9 C 0,0 UV-I 0,0 C 55 % 83 % 0 % 1018,2 hPa 0,0 l/m 1,4 km/h (1 Bft) 0 min 3,1 km/h (1 Bft)
28.07.2009 02:46 21,8 C 13,9 C 0,0 UV-I 0,0 C 56 % 83 % 0 % 1018,2 hPa 0,0 l/m 1,4 km/h (1 Bft) 0 min 2,9 km/h (1 Bft)
28.07.2009 02:48 21,7 C 13,9 C 0,0 UV-I 0,0 C 56 % 83 % 0 % 1018,2 hPa 0,0 l/m 1,4 km/h (1 Bft) 0 min 6,0 km/h (2 Bft)
28.07.2009 02:50 21,7 C 13,8 C 0,0 UV-I 0,0 C 56 % 84 % 0 % 1018,2 hPa 0,0 l/m 1,4 km/h (1 Bft) 0 min 0,0 km/h (0 Bft)
28.07.2009 02:52 21,7 C 13,8 C 0,0 UV-I 0,0 C 56 % 84 % 0 % 1018,2 hPa 0,0 l/m 1,7 km/h (1 Bft) 0 min 3,1 km/h (1 Bft)
28.07.2009 02:54 21,7 C 13,8 C 0,0 UV-I 0,0 C 56 % 84 % 0 % 1018,2 hPa 0,0 l/m 1,7 km/h (1 Bft) 0 min 6,0 km/h (2 Bft)
28.07.2009 02:56 21,7 C 13,9 C 0,0 UV-I 0,0 C 56 % 84 % 0 % 1018,1 hPa 0,0 l/m 1,4 km/h (1 Bft) 0 min 6,0 km/h (2 Bft)
28.07.2009 02:58 21,7 C 13,9 C 0,0 UV-I 0,0 C 56 % 84 % 0 % 1018,1 hPa 0,0 l/m 1,7 km/h (1 Bft) 0 min 4,1 km/h (1 Bft)
28.07.2009 03:00 21,7 C 13,9 C 0,0 UV-I 0,0 C 56 % 84 % 0 % 1018,1 hPa 0,0 l/m 1,2 km/h (1 Bft) 0 min 4,1 km/h (1 Bft)
28.07.2009 03:06 21,6 C 13,8 C 0,0 UV-I 0,0 C 56 % 84 % 0 % 1018,1 hPa 0,0 l/m 1,2 km/h (1 Bft) 0 min 7,5 km/h (2 Bft)
28.07.2009 03:08 21,6 C 13,8 C 0,0 UV-I 0,0 C 56 % 84 % 0 % 1018,1 hPa 0,0 l/m 1,2 km/h (1 Bft) 0 min 7,5 km/h (2 Bft)
28.07.2009 03:10 21,6 C 13,7 C 0,0 UV-I 0,0 C 56 % 84 % 0 % 1018,1 hPa 0,0 l/m 1,2 km/h (1 Bft) 0 min 3,4 km/h (1 Bft)
28.07.2009 03:12 21,6 C 13,7 C 0,0 UV-I 0,0 C 56 % 84 % 0 % 1018,1 hPa 0,0 l/m 1,2 km/h (1 Bft) 0 min 0,0 km/h (0 Bft)
28.07.2009 03:14 21,6 C 13,7 C 0,0 UV-I 0,0 C 56 % 84 % 0 % 1018,1 hPa 0,0 l/m 1,4 km/h (1 Bft) 0 min 0,0 km/h (0 Bft)
28.07.2009 03:16 21,6 C 13,7 C 0,0 UV-I 0,0 C 56 % 84 % 0 % 1018,2 hPa 0,0 l/m 1,7 km/h (1 Bft) 0 min 0,0 km/h (0 Bft)
28.07.2009 03:18 21,6 C 13,7 C 0,0 UV-I 0,0 C 56 % 84 % 0 % 1018,2 hPa 0,0 l/m 1,4 km/h (1 Bft) 0 min 3,1 km/h (1 Bft)
28.07.2009 03:20 21,6 C 13,7 C 0,0 UV-I 0,0 C 56 % 84 % 0 % 1018,2 hPa 0,0 l/m 1,4 km/h (1 Bft) 0 min 3,1 km/h (1 Bft)
28.07.2009 03:22 21,6 C 13,7 C 0,0 UV-I 0,0 C 56 % 84 % 0 % 1018,2 hPa 0,0 l/m 1,4 km/h (1 Bft) 0 min 2,6 km/h (1 Bft)
28.07.2009 03:28 21,5 C 13,7 C 0,0 UV-I 0,0 C 56 % 84 % 0 % 1018,2 hPa 0,0 l/m 1,2 km/h (1 Bft) 0 min 3,4 km/h (1 Bft)
28.07.2009 03:30 21,5 C 13,7 C 0,0 UV-I 0,0 C 56 % 84 % 0 % 1018,2 hPa 0,0 l/m 1,2 km/h (1 Bft) 0 min 2,4 km/h (1 Bft)
28.07.2009 03:32 21,5 C 13,6 C 0,0 UV-I 0,0 C 56 % 84 % 0 % 1018,2 hPa 0,0 l/m 1,2 km/h (1 Bft) 0 min 2,4 km/h (1 Bft)
28.07.2009 03:34 21,5 C 13,6 C 0,0 UV-I 0,0 C 56 % 84 % 0 % 1018,2 hPa 0,0 l/m 1,0 km/h (0 Bft) 0 min 2,4 km/h (1 Bft)
28.07.2009 03:36 21,5 C 13,6 C 0,0 UV-I 0,0 C 56 % 84 % 0 % 1018,4 hPa 0,0 l/m 1,0 km/h (0 Bft) 0 min 0,0 km/h (0 Bft)
28.07.2009 03:38 21,4 C 13,6 C 0,0 UV-I 0,0 C 56 % 85 % 0 % 1018,4 hPa 0,0 l/m 1,2 km/h (1 Bft) 0 min 0,0 km/h (0 Bft)
28.07.2009 03:42 21,4 C 13,7 C 0,0 UV-I 0,0 C 56 % 85 % 0 % 1018,4 hPa 0,0 l/m 1,7 km/h (1 Bft) 0 min 4,1 km/h (1 Bft)
28.07.2009 03:44 21,4 C 13,6 C 0,0 UV-I 0,0 C 56 % 85 % 0 % 1018,4 hPa 0,0 l/m 1,9 km/h (1 Bft) 0 min 5,5 km/h (1 Bft)
28.07.2009 03:46 21,4 C 13,6 C 0,0 UV-I 0,0 C 56 % 85 % 0 % 1018,4 hPa 0,0 l/m 2,2 km/h (1 Bft) 0 min 3,8 km/h (1 Bft)
28.07.2009 03:48 21,4 C 13,6 C 0,0 UV-I 0,0 C 56 % 85 % 0 % 1018,4 hPa 0,0 l/m 2,2 km/h (1 Bft) 0 min 7,9 km/h (2 Bft)
28.07.2009 03:50 21,4 C 13,6 C 0,0 UV-I 0,0 C 56 % 85 % 0 % 1018,4 hPa 0,0 l/m 2,6 km/h (1 Bft) 0 min 8,2 km/h (2 Bft)
28.07.2009 03:52 21,4 C 13,6 C 0,0 UV-I 0,0 C 56 % 85 % 0 % 1018,4 hPa 0,0 l/m 2,4 km/h (1 Bft) 0 min 8,2 km/h (2 Bft)
28.07.2009 03:56 21,4 C 13,6 C 0,0 UV-I 0,0 C 56 % 85 % 0 % 1018,6 hPa 0,0 l/m 2,2 km/h (1 Bft) 0 min 4,1 km/h (1 Bft)
28.07.2009 03:58 21,4 C 13,6 C 0,0 UV-I 0,0 C 56 % 85 % 0 % 1018,6 hPa 0,0 l/m 2,2 km/h (1 Bft) 0 min 3,1 km/h (1 Bft)
28.07.2009 04:00 21,2 C 13,6 C 0,0 UV-I 0,0 C 56 % 85 % 0 % 1018,6 hPa 0,0 l/m 1,9 km/h (1 Bft) 0 min 3,8 km/h (1 Bft)
28.07.2009 04:02 21,2 C 13,6 C 0,0 UV-I 0,0 C 56 % 85 % 0 % 1018,6 hPa 0,0 l/m 1,4 km/h (1 Bft) 0 min 0,0 km/h (0 Bft)
28.07.2009 04:06 21,3 C 13,6 C 0,0 UV-I 0,0 C 56 % 85 % 0 % 1018,6 hPa 0,0 l/m 1,9 km/h (1 Bft) 0 min 6,5 km/h (2 Bft)
28.07.2009 04:10 21,2 C 13,6 C 0,0 UV-I 0,0 C 56 % 85 % 0 % 1018,6 hPa 0,0 l/m 2,6 km/h (1 Bft) 0 min 5,3 km/h (1 Bft)
28.07.2009 04:16 21,2 C 13,6 C 0,0 UV-I 0,0 C 56 % 85 % 0 % 1018,5 hPa 0,0 l/m 2,6 km/h (1 Bft) 0 min 9,1 km/h (2 Bft)
28.07.2009 04:18 21,2 C 13,6 C 0,0 UV-I 0,0 C 56 % 85 % 0 % 1018,5 hPa 0,0 l/m 2,9 km/h (1 Bft) 0 min 3,6 km/h (1 Bft)
28.07.2009 04:22 21,2 C 13,6 C 0,0 UV-I 0,0 C 56 % 85 % 0 % 1018,5 hPa 0,0 l/m 2,6 km/h (1 Bft) 0 min 3,6 km/h (1 Bft)
28.07.2009 04:26 21,2 C 13,6 C 0,0 UV-I 0,0 C 56 % 85 % 0 % 1018,5 hPa 0,0 l/m 2,6 km/h (1 Bft) 0 min 7,9 km/h (2 Bft)
28.07.2009 04:28 21,2 C 13,6 C 0,0 UV-I 0,0 C 56 % 85 % 0 % 1018,5 hPa 0,0 l/m 2,6 km/h (1 Bft) 0 min 6,3 km/h (2 Bft)
28.07.2009 04:30 21,2 C 13,6 C 0,0 UV-I 0,0 C 56 % 85 % 0 % 1018,5 hPa 0,0 l/m 2,4 km/h (1 Bft) 0 min 6,3 km/h (2 Bft)
28.07.2009 04:32 21,2 C 13,6 C 0,0 UV-I 0,0 C 56 % 84 % 0 % 1018,5 hPa 0,0 l/m 2,4 km/h (1 Bft) 0 min 4,6 km/h (1 Bft)
28.07.2009 04:34 21,2 C 13,6 C 0,0 UV-I 0,0 C 56 % 85 % 0 % 1018,5 hPa 0,0 l/m 2,2 km/h (1 Bft) 0 min 0,0 km/h (0 Bft)
28.07.2009 04:36 21,2 C 13,6 C 0,0 UV-I 0,0 C 56 % 84 % 0 % 1018,9 hPa 0,0 l/m 1,7 km/h (1 Bft) 0 min 0,0 km/h (0 Bft)
28.07.2009 04:38 21,2 C 13,7 C 0,0 UV-I 0,0 C 56 % 84 % 0 % 1018,9 hPa 0,0 l/m 1,2 km/h (1 Bft) 0 min 3,6 km/h (1 Bft)
28.07.2009 04:42 21,1 C 13,6 C 0,0 UV-I 0,0 C 56 % 84 % 0 % 1018,9 hPa 0,0 l/m 1,4 km/h (1 Bft) 0 min 5,5 km/h (1 Bft)
28.07.2009 04:44 21,1 C 13,7 C 0,0 UV-I 0,0 C 56 % 84 % 0 % 1018,9 hPa 0,0 l/m 1,0 km/h (0 Bft) 0 min 0,0 km/h (0 Bft)
28.07.2009 04:49 21,1 C 13,6 C 0,0 UV-I 0,0 C 56 % 84 % 0 % 1018,9 hPa 0,0 l/m 1,7 km/h (1 Bft) 0 min 3,8 km/h (1 Bft)
28.07.2009 04:54 21,1 C 13,6 C 0,0 UV-I 0,0 C 56 % 84 % 0 % 1018,9 hPa 0,0 l/m 1,7 km/h (1 Bft) 0 min 7,2 km/h (2 Bft)
28.07.2009 04:59 21,1 C 13,5 C 0,0 UV-I 0,0 C 56 % 85 % 0 % 1018,9 hPa 0,0 l/m 1,4 km/h (1 Bft) 0 min 0,0 km/h (0 Bft)
28.07.2009 05:04 21,1 C 13,5 C 0,0 UV-I 0,0 C 56 % 85 % 0 % 1018,9 hPa 0,0 l/m 1,7 km/h (1 Bft) 0 min 3,8 km/h (1 Bft)
28.07.2009 05:09 21,0 C 13,5 C 0,0 UV-I 0,0 C 56 % 85 % 0 % 1018,9 hPa 0,0 l/m 1,7 km/h (1 Bft) 0 min 0,0 km/h (0 Bft)
28.07.2009 05:15 21,0 C 13,5 C 0,0 UV-I 0,0 C 56 % 85 % 0 % 1018,9 hPa 0,0 l/m 1,4 km/h (1 Bft) 0 min 2,6 km/h (1 Bft)
28.07.2009 05:16 21,0 C 13,5 C 0,0 UV-I 0,0 C 56 % 85 % 0 % 1019,2 hPa 0,0 l/m 1,4 km/h (1 Bft) 0 min 4,1 km/h (1 Bft)
28.07.2009 05:18 21,0 C 13,5 C 0,0 UV-I 0,0 C 56 % 85 % 0 % 1019,2 hPa 0,0 l/m 1,7 km/h (1 Bft) 0 min 4,1 km/h (1 Bft)
28.07.2009 05:20 21,0 C 13,5 C 0,0 UV-I 0,0 C 56 % 85 % 0 % 1019,2 hPa 0,0 l/m 1,2 km/h (1 Bft) 0 min 2,4 km/h (1 Bft)
28.07.2009 05:22 21,0 C 13,5 C 0,0 UV-I 0,0 C 56 % 85 % 0 % 1019,2 hPa 0,0 l/m 1,4 km/h (1 Bft) 0 min 2,4 km/h (1 Bft)
28.07.2009 05:24 21,0 C 13,5 C 0,0 UV-I 0,0 C 56 % 85 % 0 % 1019,2 hPa 0,0 l/m 1,2 km/h (1 Bft) 0 min 0,0 km/h (0 Bft)
28.07.2009 05:26 21,0 C 13,4 C 0,0 UV-I 0,0 C 56 % 85 % 0 % 1019,2 hPa 0,0 l/m 1,0 km/h (0 Bft) 0 min 0,0 km/h (0 Bft)
28.07.2009 05:28 21,0 C 13,3 C 0,0 UV-I 0,0 C 56 % 85 % 0 % 1019,2 hPa 0,0 l/m 0,7 km/h (0 Bft) 0 min 0,0 km/h (0 Bft)
28.07.2009 05:30 21,0 C 13,4 C 0,0 UV-I 0,0 C 56 % 85 % 0 % 1019,2 hPa 0,0 l/m 0,7 km/h (0 Bft) 0 min 0,0 km/h (0 Bft)
28.07.2009 05:32 21,0 C 13,3 C 0,0 UV-I 0,0 C 56 % 85 % 0 % 1019,2 hPa 0,0 l/m 0,5 km/h (0 Bft) 0 min 4,3 km/h (1 Bft)
28.07.2009 05:34 21,0 C 13,3 C 0,0 UV-I 0,0 C 56 % 85 % 0 % 1019,2 hPa 0,0 l/m 0,7 km/h (0 Bft) 0 min 4,3 km/h (1 Bft)
28.07.2009 05:36 21,0 C 13,3 C 0,0 UV-I 0,0 C 56 % 85 % 0 % 1019,2 hPa 0,0 l/m 0,7 km/h (0 Bft) 0 min 3,6 km/h (1 Bft)
28.07.2009 05:38 21,0 C 13,3 C 0,0 UV-I 0,0 C 57 % 85 % 0 % 1019,2 hPa 0,0 l/m 1,2 km/h (1 Bft) 0 min 2,9 km/h (1 Bft)
28.07.2009 05:40 21,0 C 13,3 C 0,0 UV-I 0,0 C 56 % 85 % 0 % 1019,2 hPa 0,0 l/m 1,2 km/h (1 Bft) 0 min 2,9 km/h (1 Bft)
28.07.2009 05:42 20,9 C 13,3 C 0,0 UV-I 0,0 C 57 % 85 % 0 % 1019,2 hPa 0,0 l/m 1,4 km/h (1 Bft) 0 min 0,0 km/h (0 Bft)
28.07.2009 05:44 20,9 C 13,3 C 0,0 UV-I 0,0 C 57 % 85 % 0 % 1019,2 hPa 0,0 l/m 1,4 km/h (1 Bft) 0 min 5,1 km/h (1 Bft)
28.07.2009 05:46 21,0 C 13,2 C 0,0 UV-I 0,0 C 56 % 85 % 0 % 1019,2 hPa 0,0 l/m 1,2 km/h (1 Bft) 0 min 5,1 km/h (1 Bft)
28.07.2009 05:48 20,9 C 13,2 C 0,0 UV-I 0,0 C 57 % 85 % 0 % 1019,2 hPa 0,0 l/m 1,2 km/h (1 Bft) 0 min 4,1 km/h (1 Bft)
28.07.2009 05:50 20,9 C 13,2 C 0,0 UV-I 0,0 C 57 % 85 % 0 % 1019,2 hPa 0,0 l/m 1,2 km/h (1 Bft) 0 min 4,1 km/h (1 Bft)
28.07.2009 05:52 20,9 C 13,2 C 0,0 UV-I 0,0 C 57 % 85 % 0 % 1019,2 hPa 0,0 l/m 1,2 km/h (1 Bft) 0 min 4,6 km/h (1 Bft)
28.07.2009 05:54 20,9 C 13,2 C 0,0 UV-I 0,0 C 57 % 85 % 0 % 1019,2 hPa 0,0 l/m 1,2 km/h (1 Bft) 0 min 4,6 km/h (1 Bft)
28.07.2009 05:56 20,9 C 13,2 C 0,0 UV-I 0,0 C 57 % 85 % 0 % 1019,6 hPa 0,0 l/m 1,2 km/h (1 Bft) 0 min 3,4 km/h (1 Bft)
28.07.2009 05:58 20,9 C 13,2 C 0,0 UV-I 0,0 C 57 % 85 % 0 % 1019,6 hPa 0,0 l/m 1,4 km/h (1 Bft) 0 min 8,2 km/h (2 Bft)
28.07.2009 06:00 20,9 C 13,3 C 0,0 UV-I 0,0 C 57 % 85 % 0 % 1019,6 hPa 0,0 l/m 1,4 km/h (1 Bft) 0 min 8,2 km/h (2 Bft)
28.07.2009 06:02 20,9 C 13,3 C 0,0 UV-I 0,0 C 57 % 85 % 0 % 1019,6 hPa 0,0 l/m 1,4 km/h (1 Bft) 0 min 0,0 km/h (0 Bft)
28.07.2009 06:04 20,9 C 13,3 C 0,0 UV-I 0,0 C 57 % 85 % 0 % 1019,6 hPa 0,0 l/m 1,2 km/h (1 Bft) 0 min 3,1 km/h (1 Bft)
28.07.2009 06:06 20,9 C 13,2 C 0,0 UV-I 0,0 C 57 % 85 % 0 % 1019,6 hPa 0,0 l/m 1,0 km/h (0 Bft) 0 min 3,1 km/h (1 Bft)
28.07.2009 06:08 20,9 C 13,2 C 0,0 UV-I 0,0 C 57 % 86 % 0 % 1019,6 hPa 0,0 l/m 0,7 km/h (0 Bft) 0 min 0,0 km/h (0 Bft)
28.07.2009 06:10 20,8 C 13,1 C 0,0 UV-I 0,0 C 57 % 86 % 0 % 1019,6 hPa 0,0 l/m 0,5 km/h (0 Bft) 0 min 0,0 km/h (0 Bft)
28.07.2009 06:12 20,8 C 13,2 C 0,0 UV-I 0,0 C 57 % 86 % 0 % 1019,6 hPa 0,0 l/m 0,5 km/h (0 Bft) 0 min 5,1 km/h (1 Bft)
28.07.2009 06:14 20,8 C 13,2 C 0,0 UV-I 0,0 C 57 % 86 % 0 % 1019,6 hPa 0,0 l/m 0,7 km/h (0 Bft) 0 min 5,1 km/h (1 Bft)
28.07.2009 06:16 20,8 C 13,1 C 0,0 UV-I 0,0 C 57 % 86 % 0 % 1019,5 hPa 0,0 l/m 0,7 km/h (0 Bft) 0 min 4,1 km/h (1 Bft)
28.07.2009 06:18 20,9 C 13,2 C 0,0 UV-I 0,0 C 57 % 86 % 0 % 1019,5 hPa 0,0 l/m 1,0 km/h (0 Bft) 0 min 5,1 km/h (1 Bft)
28.07.2009 06:20 20,9 C 13,1 C 0,0 UV-I 0,0 C 57 % 86 % 0 % 1019,5 hPa 0,0 l/m 1,0 km/h (0 Bft) 0 min 5,1 km/h (1 Bft)
28.07.2009 06:22 20,8 C 13,2 C 0,0 UV-I 0,0 C 57 % 86 % 0 % 1019,5 hPa 0,0 l/m 1,2 km/h (1 Bft) 0 min 3,4 km/h (1 Bft)
28.07.2009 06:24 20,8 C 13,2 C 0,0 UV-I 0,0 C 57 % 86 % 0 % 1019,5 hPa 0,0 l/m 1,7 km/h (1 Bft) 0 min 7,7 km/h (2 Bft)
28.07.2009 06:26 20,9 C 13,2 C 0,0 UV-I 0,0 C 57 % 86 % 0 % 1019,5 hPa 0,0 l/m 1,4 km/h (1 Bft) 0 min 7,7 km/h (2 Bft)
28.07.2009 06:28 20,8 C 13,2 C 0,0 UV-I 0,0 C 57 % 86 % 0 % 1019,5 hPa 0,0 l/m 1,7 km/h (1 Bft) 0 min 4,1 km/h (1 Bft)
28.07.2009 06:30 20,8 C 13,2 C 0,0 UV-I 0,0 C 57 % 86 % 0 % 1019,5 hPa 0,0 l/m 1,7 km/h (1 Bft) 0 min 4,1 km/h (1 Bft)
28.07.2009 06:32 20,8 C 13,2 C 0,0 UV-I 0,0 C 57 % 86 % 0 % 1019,5 hPa 0,0 l/m 1,9 km/h (1 Bft) 0 min 6,0 km/h (2 Bft)
28.07.2009 06:34 20,8 C 13,2 C 0,0 UV-I 0,0 C 57 % 86 % 0 % 1019,5 hPa 0,0 l/m 1,9 km/h (1 Bft) 0 min 6,0 km/h (2 Bft)
28.07.2009 06:36 20,8 C 13,2 C 0,1 UV-I 0,0 C 57 % 86 % 0 % 1019,8 hPa 0,0 l/m 1,4 km/h (1 Bft) 0 min 3,4 km/h (1 Bft)
28.07.2009 06:38 20,8 C 13,2 C 0,1 UV-I 0,0 C 57 % 86 % 0 % 1019,8 hPa 0,0 l/m 1,7 km/h (1 Bft) 0 min 5,1 km/h (1 Bft)
28.07.2009 06:40 20,8 C 13,2 C 0,1 UV-I 0,0 C 57 % 86 % 0 % 1019,8 hPa 0,0 l/m 1,4 km/h (1 Bft) 0 min 5,1 km/h (1 Bft)
28.07.2009 06:42 20,8 C 13,3 C 0,1 UV-I 0,0 C 57 % 86 % 0 % 1019,8 hPa 0,0 l/m 1,4 km/h (1 Bft) 0 min 4,1 km/h (1 Bft)
28.07.2009 06:44 20,8 C 13,4 C 0,1 UV-I 0,0 C 57 % 86 % 0 % 1019,8 hPa 0,0 l/m 1,9 km/h (1 Bft) 0 min 8,4 km/h (2 Bft)
28.07.2009 06:46 20,8 C 13,4 C 0,1 UV-I 0,0 C 57 % 86 % 0 % 1019,8 hPa 0,0 l/m 2,2 km/h (1 Bft) 0 min 8,4 km/h (2 Bft)
28.07.2009 06:48 20,8 C 13,5 C 0,1 UV-I 0,0 C 57 % 86 % 0 % 1019,8 hPa 0,0 l/m 2,6 km/h (1 Bft) 0 min 6,5 km/h (2 Bft)
28.07.2009 06:50 20,8 C 13,4 C 0,1 UV-I 0,1 C 57 % 86 % 3 % 1019,8 hPa 0,0 l/m 2,9 km/h (1 Bft) 0 min 6,7 km/h (2 Bft)
28.07.2009 06:52 20,8 C 13,5 C 0,1 UV-I 0,1 C 57 % 86 % 3 % 1019,8 hPa 0,0 l/m 2,9 km/h (1 Bft) 0 min 11,3 km/h (2 Bft)
28.07.2009 06:54 20,8 C 13,5 C 0,1 UV-I 0,1 C 57 % 86 % 3 % 1019,8 hPa 0,0 l/m 2,9 km/h (1 Bft) 0 min 5,5 km/h (1 Bft)
28.07.2009 06:56 20,8 C 13,5 C 0,1 UV-I 0,2 C 57 % 86 % 6 % 1019,8 hPa 0,0 l/m 2,9 km/h (1 Bft) 0 min 5,5 km/h (1 Bft)
28.07.2009 06:58 20,8 C 13,7 C 0,1 UV-I 0,1 C 57 % 86 % 3 % 1019,8 hPa 0,0 l/m 2,2 km/h (1 Bft) 0 min 5,3 km/h (1 Bft)
28.07.2009 07:00 20,8 C 13,6 C 0,1 UV-I 0,1 C 57 % 86 % 3 % 1019,8 hPa 0,0 l/m 1,9 km/h (1 Bft) 0 min 4,1 km/h (1 Bft)
28.07.2009 07:02 20,8 C 13,6 C 0,1 UV-I 0,2 C 57 % 86 % 6 % 1019,8 hPa 0,0 l/m 1,9 km/h (1 Bft) 0 min 4,1 km/h (1 Bft)
28.07.2009 07:04 20,8 C 13,7 C 0,1 UV-I 0,2 C 57 % 86 % 6 % 1019,8 hPa 0,0 l/m 2,4 km/h (1 Bft) 0 min 5,1 km/h (1 Bft)
28.07.2009 07:06 20,8 C 13,7 C 0,1 UV-I 0,2 C 57 % 86 % 6 % 1019,8 hPa 0,0 l/m 1,9 km/h (1 Bft) 0 min 5,1 km/h (1 Bft)
28.07.2009 07:08 20,8 C 13,7 C 0,1 UV-I 0,3 C 57 % 86 % 9 % 1019,8 hPa 0,0 l/m 1,9 km/h (1 Bft) 0 min 4,3 km/h (1 Bft)
28.07.2009 07:10 20,8 C 13,9 C 0,1 UV-I 0,2 C 57 % 86 % 6 % 1019,8 hPa 0,0 l/m 2,4 km/h (1 Bft) 0 min 3,4 km/h (1 Bft)
28.07.2009 07:14 20,8 C 13,9 C 0,2 UV-I 0,3 C 57 % 86 % 9 % 1019,8 hPa 0,0 l/m 2,2 km/h (1 Bft) 0 min 5,5 km/h (1 Bft)
28.07.2009 07:16 20,8 C 13,9 C 0,3 UV-I 0,3 C 57 % 86 % 9 % 1020,4 hPa 0,0 l/m 1,9 km/h (1 Bft) 0 min 5,5 km/h (1 Bft)
28.07.2009 07:18 20,8 C 13,9 C 0,3 UV-I 0,4 C 57 % 86 % 11 % 1020,4 hPa 0,0 l/m 2,6 km/h (1 Bft) 0 min 7,7 km/h (2 Bft)
28.07.2009 07:20 20,8 C 14,0 C 0,3 UV-I 0,3 C 57 % 86 % 9 % 1020,4 hPa 0,0 l/m 3,1 km/h (1 Bft) 0 min 16,1 km/h (3 Bft)
28.07.2009 07:22 20,8 C 14,0 C 0,3 UV-I 0,4 C 57 % 86 % 11 % 1020,4 hPa 0,0 l/m 3,1 km/h (1 Bft) 0 min 16,1 km/h (3 Bft)
28.07.2009 07:24 20,8 C 14,0 C 0,3 UV-I 0,4 C 57 % 86 % 11 % 1020,4 hPa 0,0 l/m 3,4 km/h (1 Bft) 0 min 4,8 km/h (1 Bft)
28.07.2009 07:26 20,8 C 14,1 C 0,3 UV-I 0,3 C 57 % 86 % 9 % 1020,4 hPa 0,0 l/m 3,1 km/h (1 Bft) 0 min 4,8 km/h (1 Bft)
28.07.2009 07:28 20,8 C 14,0 C 0,3 UV-I 0,4 C 57 % 86 % 11 % 1020,4 hPa 0,0 l/m 3,8 km/h (1 Bft) 0 min 9,1 km/h (2 Bft)
28.07.2009 07:30 20,8 C 14,1 C 0,3 UV-I 0,4 C 57 % 86 % 11 % 1020,4 hPa 0,0 l/m 4,1 km/h (1 Bft) 0 min 9,1 km/h (2 Bft)
28.07.2009 07:32 20,8 C 14,1 C 0,3 UV-I 0,4 C 57 % 86 % 11 % 1020,4 hPa 0,0 l/m 3,8 km/h (1 Bft) 0 min 16,6 km/h (3 Bft)
28.07.2009 07:34 20,8 C 14,1 C 0,3 UV-I 0,4 C 57 % 86 % 11 % 1020,4 hPa 0,0 l/m 4,1 km/h (1 Bft) 0 min 8,2 km/h (2 Bft)
28.07.2009 07:36 20,8 C 14,2 C 0,4 UV-I 0,3 C 57 % 86 % 9 % 1020,3 hPa 0,0 l/m 3,8 km/h (1 Bft) 0 min 3,1 km/h (1 Bft)
28.07.2009 07:38 20,8 C 14,1 C 0,4 UV-I 0,5 C 58 % 86 % 14 % 1020,3 hPa 0,0 l/m 3,8 km/h (1 Bft) 0 min 4,3 km/h (1 Bft)
28.07.2009 07:40 20,8 C 14,2 C 0,4 UV-I 0,4 C 58 % 86 % 11 % 1020,3 hPa 0,0 l/m 2,9 km/h (1 Bft) 0 min 4,8 km/h (1 Bft)
28.07.2009 07:42 20,8 C 14,3 C 0,4 UV-I 0,3 C 58 % 86 % 9 % 1020,3 hPa 0,0 l/m 3,1 km/h (1 Bft) 0 min 5,8 km/h (2 Bft)
28.07.2009 07:44 20,8 C 14,3 C 0,4 UV-I 0,3 C 58 % 86 % 9 % 1020,3 hPa 0,0 l/m 2,9 km/h (1 Bft) 0 min 5,8 km/h (2 Bft)
28.07.2009 07:46 20,8 C 14,2 C 0,4 UV-I 0,4 C 58 % 86 % 11 % 1020,3 hPa 0,0 l/m 3,4 km/h (1 Bft) 0 min 8,7 km/h (2 Bft)
28.07.2009 07:48 20,8 C 14,3 C 0,4 UV-I 0,4 C 58 % 86 % 11 % 1020,3 hPa 0,0 l/m 4,1 km/h (1 Bft) 0 min 8,7 km/h (2 Bft)
28.07.2009 07:52 20,8 C 14,3 C 0,5 UV-I 0,4 C 58 % 86 % 11 % 1020,3 hPa 0,0 l/m 4,6 km/h (1 Bft) 0 min 8,2 km/h (2 Bft)
28.07.2009 07:54 20,8 C 14,3 C 0,5 UV-I 0,4 C 58 % 86 % 11 % 1020,3 hPa 0,0 l/m 4,1 km/h (1 Bft) 0 min 3,1 km/h (1 Bft)
28.07.2009 07:56 20,8 C 14,4 C 0,7 UV-I 0,4 C 58 % 86 % 11 % 1020,5 hPa 0,0 l/m 4,3 km/h (1 Bft) 0 min 6,5 km/h (2 Bft)
28.07.2009 07:58 20,8 C 14,5 C 0,7 UV-I 0,3 C 58 % 86 % 9 % 1020,5 hPa 0,0 l/m 3,8 km/h (1 Bft) 0 min 6,5 km/h (2 Bft)
28.07.2009 08:00 20,8 C 14,4 C 0,7 UV-I 0,5 C 58 % 86 % 14 % 1020,5 hPa 0,0 l/m 2,9 km/h (1 Bft) 0 min 2,9 km/h (1 Bft)
28.07.2009 08:02 20,8 C 14,5 C 0,4 UV-I 0,5 C 58 % 86 % 14 % 1020,5 hPa 0,0 l/m 2,9 km/h (1 Bft) 0 min 3,6 km/h (1 Bft)
28.07.2009 08:04 20,8 C 14,5 C 0,4 UV-I 0,5 C 58 % 86 % 14 % 1020,5 hPa 0,0 l/m 3,1 km/h (1 Bft) 0 min 5,8 km/h (2 Bft)
28.07.2009 08:06 20,8 C 14,6 C 0,6 UV-I 0,4 C 58 % 86 % 11 % 1020,5 hPa 0,0 l/m 3,6 km/h (1 Bft) 0 min 5,8 km/h (2 Bft)
28.07.2009 08:08 20,8 C 14,6 C 0,6 UV-I 0,4 C 58 % 85 % 11 % 1020,5 hPa 0,0 l/m 4,1 km/h (1 Bft) 0 min 6,5 km/h (2 Bft)
28.07.2009 08:10 20,8 C 14,5 C 0,6 UV-I 0,5 C 58 % 85 % 14 % 1020,5 hPa 0,0 l/m 4,6 km/h (1 Bft) 0 min 7,7 km/h (2 Bft)
28.07.2009 08:12 20,9 C 14,7 C 0,5 UV-I 0,3 C 58 % 85 % 9 % 1020,5 hPa 0,0 l/m 4,3 km/h (1 Bft) 0 min 7,7 km/h (2 Bft)
28.07.2009 08:14 20,8 C 14,7 C 0,5 UV-I 0,3 C 58 % 85 % 9 % 1020,5 hPa 0,0 l/m 4,3 km/h (1 Bft) 0 min 5,1 km/h (1 Bft)
28.07.2009 08:18 20,9 C 14,7 C 0,4 UV-I 0,4 C 58 % 85 % 11 % 1021,0 hPa 0,0 l/m 3,1 km/h (1 Bft) 0 min 9,4 km/h (2 Bft)
28.07.2009 08:20 20,9 C 14,7 C 0,4 UV-I 0,4 C 58 % 85 % 11 % 1021,0 hPa 0,0 l/m 2,9 km/h (1 Bft) 0 min 9,4 km/h (2 Bft)
28.07.2009 08:22 20,9 C 14,7 C 0,4 UV-I 0,4 C 58 % 85 % 11 % 1021,0 hPa 0,0 l/m 2,9 km/h (1 Bft) 0 min 5,5 km/h (1 Bft)
28.07.2009 08:24 20,9 C 14,7 C 0,4 UV-I 0,4 C 58 % 85 % 11 % 1021,0 hPa 0,0 l/m 3,4 km/h (1 Bft) 0 min 5,8 km/h (2 Bft)
28.07.2009 08:26 20,9 C 14,7 C 0,4 UV-I 0,4 C 58 % 85 % 11 % 1021,0 hPa 0,0 l/m 3,6 km/h (1 Bft) 0 min 5,8 km/h (2 Bft)
28.07.2009 08:28 20,9 C 14,7 C 0,4 UV-I 0,4 C 58 % 85 % 11 % 1021,0 hPa 0,0 l/m 4,6 km/h (1 Bft) 0 min 5,1 km/h (1 Bft)
28.07.2009 08:30 20,9 C 14,8 C 0,4 UV-I 0,3 C 58 % 85 % 9 % 1021,0 hPa 0,0 l/m 4,8 km/h (1 Bft) 0 min 5,1 km/h (1 Bft)
28.07.2009 08:32 20,9 C 14,8 C 0,6 UV-I 0,3 C 58 % 85 % 9 % 1021,0 hPa 0,0 l/m 4,3 km/h (1 Bft) 0 min 5,5 km/h (1 Bft)
28.07.2009 08:34 20,9 C 14,8 C 0,6 UV-I 0,3 C 58 % 85 % 9 % 1021,0 hPa 0,0 l/m 3,8 km/h (1 Bft) 0 min 5,5 km/h (1 Bft)
28.07.2009 08:36 20,9 C 14,9 C 0,6 UV-I 0,3 C 58 % 85 % 9 % 1021,1 hPa 0,0 l/m 3,4 km/h (1 Bft) 0 min 11,8 km/h (2 Bft)
28.07.2009 08:38 20,9 C 14,8 C 0,6 UV-I 0,4 C 58 % 85 % 11 % 1021,1 hPa 0,0 l/m 3,4 km/h (1 Bft) 0 min 11,8 km/h (2 Bft)
28.07.2009 08:40 20,9 C 14,8 C 0,6 UV-I 0,5 C 58 % 85 % 14 % 1021,1 hPa 0,0 l/m 2,9 km/h (1 Bft) 0 min 9,6 km/h (2 Bft)
28.07.2009 08:42 20,9 C 14,9 C 0,6 UV-I 0,4 C 58 % 85 % 11 % 1021,1 hPa 0,0 l/m 3,4 km/h (1 Bft) 0 min 11,8 km/h (2 Bft)
28.07.2009 08:44 20,9 C 14,9 C 0,6 UV-I 0,4 C 58 % 85 % 11 % 1021,1 hPa 0,0 l/m 3,6 km/h (1 Bft) 0 min 11,8 km/h (2 Bft)
28.07.2009 08:46 20,9 C 15,0 C 0,5 UV-I 0,3 C 58 % 85 % 9 % 1021,1 hPa 0,0 l/m 3,8 km/h (1 Bft) 0 min 5,1 km/h (1 Bft)
28.07.2009 08:48 20,9 C 15,1 C 0,5 UV-I 0,2 C 58 % 85 % 6 % 1021,1 hPa 0,0 l/m 3,6 km/h (1 Bft) 0 min 7,0 km/h (2 Bft)
28.07.2009 08:50 20,9 C 15,0 C 0,5 UV-I 0,3 C 58 % 85 % 9 % 1021,1 hPa 0,0 l/m 4,6 km/h (1 Bft) 0 min 7,0 km/h (2 Bft)
28.07.2009 08:52 20,9 C 15,1 C 0,9 UV-I 0,2 C 58 % 85 % 6 % 1021,1 hPa 0,0 l/m 3,8 km/h (1 Bft) 0 min 5,5 km/h (1 Bft)
28.07.2009 08:54 21,0 C 15,1 C 0,9 UV-I 0,4 C 58 % 85 % 11 % 1021,1 hPa 0,0 l/m 3,4 km/h (1 Bft) 0 min 3,6 km/h (1 Bft)
28.07.2009 08:56 20,9 C 15,1 C 1,4 UV-I 0,5 C 58 % 85 % 14 % 1021,2 hPa 0,0 l/m 3,6 km/h (1 Bft) 0 min 3,6 km/h (1 Bft)
28.07.2009 08:58 21,0 C 15,2 C 1,4 UV-I 0,5 C 59 % 85 % 14 % 1021,2 hPa 0,0 l/m 3,4 km/h (1 Bft) 0 min 8,7 km/h (2 Bft)
28.07.2009 09:00 21,0 C 15,3 C 1,4 UV-I 0,5 C 58 % 85 % 14 % 1021,2 hPa 0,0 l/m 3,1 km/h (1 Bft) 0 min 8,7 km/h (2 Bft)
28.07.2009 09:02 21,0 C 15,2 C 1,5 UV-I 0,8 C 58 % 84 % 23 % 1021,2 hPa 0,0 l/m 3,4 km/h (1 Bft) 0 min 7,5 km/h (2 Bft)
28.07.2009 09:04 21,0 C 15,2 C 1,5 UV-I 0,8 C 58 % 84 % 23 % 1021,2 hPa 0,0 l/m 3,8 km/h (1 Bft) 0 min 7,5 km/h (2 Bft)
28.07.2009 09:06 21,0 C 15,3 C 2,0 UV-I 0,9 C 58 % 84 % 26 % 1021,2 hPa 0,0 l/m 3,8 km/h (1 Bft) 0 min 7,5 km/h (2 Bft)
28.07.2009 09:08 21,0 C 15,3 C 2,0 UV-I 1,1 C 59 % 84 % 31 % 1021,2 hPa 0,0 l/m 3,8 km/h (1 Bft) 0 min 4,6 km/h (1 Bft)
28.07.2009 09:12 21,0 C 15,4 C 1,9 UV-I 1,2 C 59 % 84 % 34 % 1021,2 hPa 0,0 l/m 2,9 km/h (1 Bft) 0 min 4,8 km/h (1 Bft)
28.07.2009 09:14 21,0 C 15,5 C 1,9 UV-I 1,3 C 59 % 84 % 37 % 1021,2 hPa 0,0 l/m 2,6 km/h (1 Bft) 0 min 6,3 km/h (2 Bft)
28.07.2009 09:16 21,1 C 15,5 C 1,9 UV-I 1,4 C 58 % 84 % 40 % 1021,2 hPa 0,0 l/m 2,6 km/h (1 Bft) 0 min 8,9 km/h (2 Bft)
28.07.2009 09:18 21,1 C 15,6 C 1,9 UV-I 1,4 C 58 % 84 % 40 % 1021,2 hPa 0,0 l/m 2,6 km/h (1 Bft) 0 min 8,9 km/h (2 Bft)
28.07.2009 09:20 21,1 C 15,6 C 1,9 UV-I 1,4 C 58 % 83 % 40 % 1021,2 hPa 0,0 l/m 2,9 km/h (1 Bft) 0 min 4,1 km/h (1 Bft)
28.07.2009 09:22 21,1 C 15,7 C 1,8 UV-I 1,4 C 59 % 83 % 40 % 1021,2 hPa 0,0 l/m 3,1 km/h (1 Bft) 0 min 2,4 km/h (1 Bft)
28.07.2009 09:24 21,1 C 15,7 C 1,8 UV-I 1,5 C 58 % 84 % 43 % 1021,2 hPa 0,0 l/m 3,4 km/h (1 Bft) 0 min 6,3 km/h (2 Bft)
28.07.2009 09:26 21,1 C 15,8 C 1,6 UV-I 1,3 C 59 % 83 % 37 % 1021,2 hPa 0,0 l/m 3,6 km/h (1 Bft) 0 min 6,3 km/h (2 Bft)
28.07.2009 09:28 21,2 C 15,9 C 1,6 UV-I 1,1 C 59 % 83 % 31 % 1021,2 hPa 0,0 l/m 3,1 km/h (1 Bft) 0 min 5,8 km/h (2 Bft)
28.07.2009 09:32 21,2 C 15,9 C 1,6 UV-I 1,3 C 59 % 83 % 37 % 1021,2 hPa 0,0 l/m 2,6 km/h (1 Bft) 0 min 5,3 km/h (1 Bft)
28.07.2009 09:34 21,2 C 15,9 C 1,6 UV-I 1,5 C 59 % 83 % 43 % 1021,2 hPa 0,0 l/m 3,1 km/h (1 Bft) 0 min 5,3 km/h (1 Bft)
28.07.2009 09:36 21,2 C 16,0 C 1,9 UV-I 1,4 C 59 % 83 % 40 % 1021,1 hPa 0,0 l/m 2,6 km/h (1 Bft) 0 min 7,2 km/h (2 Bft)
28.07.2009 09:40 21,2 C 16,0 C 1,9 UV-I 1,5 C 59 % 83 % 43 % 1021,1 hPa 0,0 l/m 3,1 km/h (1 Bft) 0 min 7,2 km/h (2 Bft)
28.07.2009 09:42 21,2 C 16,2 C 2,4 UV-I 1,4 C 59 % 83 % 40 % 1021,1 hPa 0,0 l/m 3,4 km/h (1 Bft) 0 min 6,0 km/h (2 Bft)
28.07.2009 09:44 21,2 C 16,2 C 2,4 UV-I 1,5 C 59 % 83 % 43 % 1021,1 hPa 0,0 l/m 3,8 km/h (1 Bft) 0 min 7,5 km/h (2 Bft)
28.07.2009 09:46 21,2 C 16,3 C 2,4 UV-I 1,4 C 59 % 82 % 40 % 1021,1 hPa 0,0 l/m 3,8 km/h (1 Bft) 0 min 7,5 km/h (2 Bft)
28.07.2009 09:48 21,2 C 16,3 C 2,4 UV-I 1,4 C 59 % 82 % 40 % 1021,1 hPa 0,0 l/m 4,1 km/h (1 Bft) 0 min 12,0 km/h (2 Bft)
28.07.2009 09:50 21,2 C 16,3 C 2,4 UV-I 1,6 C 59 % 81 % 46 % 1021,1 hPa 0,0 l/m 4,1 km/h (1 Bft) 0 min 5,3 km/h (1 Bft)
28.07.2009 09:52 21,3 C 16,3 C 2,8 UV-I 1,8 C 59 % 81 % 51 % 1021,1 hPa 0,0 l/m 4,6 km/h (1 Bft) 0 min 5,3 km/h (1 Bft)
28.07.2009 09:54 21,3 C 16,4 C 2,8 UV-I 1,9 C 59 % 81 % 54 % 1021,1 hPa 0,0 l/m 4,6 km/h (1 Bft) 0 min 5,8 km/h (2 Bft)
28.07.2009 09:56 21,3 C 16,4 C 2,8 UV-I 2,3 C 59 % 81 % 66 % 1021,4 hPa 0,0 l/m 4,1 km/h (1 Bft) 0 min 5,8 km/h (2 Bft)
28.07.2009 09:58 21,3 C 16,4 C 2,8 UV-I 3,0 C 59 % 81 % 86 % 1021,4 hPa 0,0 l/m 4,1 km/h (1 Bft) 2 min 3,1 km/h (1 Bft)
28.07.2009 10:00 21,3 C 16,5 C 2,8 UV-I 3,7 C 59 % 81 % 100 % 1021,4 hPa 0,0 l/m 3,6 km/h (1 Bft) 2 min 3,4 km/h (1 Bft)
28.07.2009 10:02 21,2 C 16,7 C 3,2 UV-I 4,0 C 59 % 81 % 100 % 1021,4 hPa 0,0 l/m 2,9 km/h (1 Bft) 2 min 5,5 km/h (1 Bft)
28.07.2009 10:04 21,2 C 16,6 C 3,2 UV-I 4,0 C 59 % 80 % 100 % 1021,4 hPa 0,0 l/m 3,1 km/h (1 Bft) 2 min 6,3 km/h (2 Bft)
28.07.2009 10:06 21,2 C 16,7 C 3,3 UV-I 3,6 C 59 % 80 % 100 % 1021,4 hPa 0,0 l/m 2,9 km/h (1 Bft) 2 min 6,3 km/h (2 Bft)
28.07.2009 10:10 21,4 C 16,8 C 3,3 UV-I 4,1 C 59 % 80 % 100 % 1021,4 hPa 0,0 l/m 3,4 km/h (1 Bft) 2 min 10,6 km/h (2 Bft)
28.07.2009 10:14 21,4 C 16,9 C 4,6 UV-I 4,0 C 59 % 79 % 100 % 1021,4 hPa 0,0 l/m 3,1 km/h (1 Bft) 2 min 6,5 km/h (2 Bft)
28.07.2009 10:16 21,4 C 17,1 C 9,8 UV-I 4,7 C 59 % 79 % 100 % 1021,4 hPa 0,0 l/m 3,4 km/h (1 Bft) 2 min 6,7 km/h (2 Bft)
28.07.2009 10:18 21,4 C 17,1 C 9,8 UV-I 5,4 C 59 % 79 % 100 % 1021,4 hPa 0,0 l/m 3,6 km/h (1 Bft) 2 min 8,4 km/h (2 Bft)
28.07.2009 10:20 21,4 C 17,2 C 9,8 UV-I 5,3 C 59 % 79 % 100 % 1021,4 hPa 0,0 l/m 3,4 km/h (1 Bft) 2 min 8,4 km/h (2 Bft)
28.07.2009 10:22 21,4 C 17,5 C 8,8 UV-I 5,1 C 59 % 78 % 100 % 1021,4 hPa 0,0 l/m 3,6 km/h (1 Bft) 2 min 4,3 km/h (1 Bft)
28.07.2009 10:24 21,4 C 17,5 C 8,8 UV-I 5,3 C 59 % 78 % 100 % 1021,4 hPa 0,0 l/m 3,8 km/h (1 Bft) 2 min 8,4 km/h (2 Bft)
28.07.2009 10:26 21,4 C 17,5 C 10,1 UV-I 5,3 C 59 % 78 % 100 % 1021,4 hPa 0,0 l/m 4,3 km/h (1 Bft) 2 min 8,4 km/h (2 Bft)
28.07.2009 10:28 21,4 C 17,6 C 10,1 UV-I 5,2 C 59 % 77 % 100 % 1021,4 hPa 0,0 l/m 4,6 km/h (1 Bft) 2 min 5,8 km/h (2 Bft)
28.07.2009 10:30 21,4 C 17,7 C 10,1 UV-I 4,7 C 59 % 77 % 100 % 1021,4 hPa 0,0 l/m 4,1 km/h (1 Bft) 2 min 2,9 km/h (1 Bft)
28.07.2009 10:32 21,4 C 17,7 C 8,8 UV-I 4,5 C 59 % 77 % 100 % 1021,4 hPa 0,0 l/m 4,3 km/h (1 Bft) 2 min 8,2 km/h (2 Bft)
28.07.2009 10:34 21,5 C 17,9 C 8,8 UV-I 4,3 C 59 % 76 % 100 % 1021,4 hPa 0,0 l/m 4,3 km/h (1 Bft) 2 min 8,2 km/h (2 Bft)
28.07.2009 10:36 21,5 C 17,9 C 10,0 UV-I 4,3 C 59 % 76 % 100 % 1021,6 hPa 0,0 l/m 4,3 km/h (1 Bft) 2 min 6,0 km/h (2 Bft)
28.07.2009 10:38 21,5 C 17,8 C 10,0 UV-I 4,3 C 59 % 76 % 100 % 1021,6 hPa 0,0 l/m 4,1 km/h (1 Bft) 2 min 6,0 km/h (2 Bft)
28.07.2009 10:40 21,5 C 18,0 C 10,0 UV-I 4,0 C 58 % 76 % 100 % 1021,6 hPa 0,0 l/m 3,8 km/h (1 Bft) 2 min 5,1 km/h (1 Bft)
28.07.2009 10:42 21,5 C 18,0 C 7,7 UV-I 3,6 C 58 % 75 % 100 % 1021,6 hPa 0,0 l/m 3,8 km/h (1 Bft) 2 min 4,8 km/h (1 Bft)
28.07.2009 10:44 21,5 C 17,9 C 7,7 UV-I 3,4 C 58 % 75 % 97 % 1021,6 hPa 0,0 l/m 4,1 km/h (1 Bft) 2 min 8,7 km/h (2 Bft)
28.07.2009 10:48 21,5 C 18,0 C 6,9 UV-I 3,1 C 58 % 74 % 89 % 1021,6 hPa 0,0 l/m 4,1 km/h (1 Bft) 2 min 8,7 km/h (2 Bft)
28.07.2009 10:52 21,5 C 18,2 C 12,6 UV-I 4,4 C 58 % 74 % 100 % 1021,6 hPa 0,0 l/m 4,1 km/h (1 Bft) 2 min 4,6 km/h (1 Bft)
28.07.2009 10:54 21,5 C 18,3 C 12,6 UV-I 4,7 C 58 % 74 % 100 % 1021,6 hPa 0,0 l/m 3,6 km/h (1 Bft) 2 min 3,8 km/h (1 Bft)
28.07.2009 10:56 21,5 C 18,4 C 13,6 UV-I 5,3 C 58 % 73 % 100 % 1021,8 hPa 0,0 l/m 4,1 km/h (1 Bft) 2 min 9,1 km/h (2 Bft)
28.07.2009 10:58 21,5 C 18,4 C 13,6 UV-I 5,4 C 58 % 74 % 100 % 1021,8 hPa 0,0 l/m 3,6 km/h (1 Bft) 2 min 9,1 km/h (2 Bft)
28.07.2009 11:00 21,5 C 18,6 C 13,6 UV-I 5,3 C 58 % 73 % 100 % 1021,8 hPa 0,0 l/m 3,4 km/h (1 Bft) 2 min 4,3 km/h (1 Bft)
28.07.2009 11:02 21,6 C 18,7 C 12,0 UV-I 5,7 C 58 % 73 % 100 % 1021,8 hPa 0,0 l/m 3,1 km/h (1 Bft) 2 min 5,8 km/h (2 Bft)
28.07.2009 11:04 21,6 C 18,8 C 12,0 UV-I 5,8 C 58 % 72 % 100 % 1021,8 hPa 0,0 l/m 3,8 km/h (1 Bft) 2 min 7,5 km/h (2 Bft)
28.07.2009 11:06 21,6 C 18,9 C 12,2 UV-I 5,5 C 58 % 72 % 100 % 1021,8 hPa 0,0 l/m 3,8 km/h (1 Bft) 2 min 7,5 km/h (2 Bft)
28.07.2009 11:08 21,6 C 19,1 C 12,2 UV-I 5,1 C 58 % 70 % 100 % 1021,8 hPa 0,0 l/m 4,3 km/h (1 Bft) 2 min 8,2 km/h (2 Bft)
28.07.2009 11:12 21,6 C 19,2 C 13,4 UV-I 5,2 C 58 % 70 % 100 % 1021,8 hPa 0,0 l/m 5,8 km/h (2 Bft) 2 min 9,6 km/h (2 Bft)
28.07.2009 11:14 21,6 C 19,3 C 13,4 UV-I 5,1 C 58 % 70 % 100 % 1021,8 hPa 0,0 l/m 5,8 km/h (2 Bft) 2 min 7,9 km/h (2 Bft)
28.07.2009 11:16 21,6 C 19,2 C 13,0 UV-I 5,2 C 58 % 70 % 100 % 1021,9 hPa 0,0 l/m 5,5 km/h (1 Bft) 2 min 4,3 km/h (1 Bft)
28.07.2009 11:18 21,6 C 19,5 C 13,0 UV-I 5,0 C 58 % 69 % 100 % 1021,9 hPa 0,0 l/m 5,5 km/h (1 Bft) 2 min 4,3 km/h (1 Bft)
28.07.2009 11:20 21,6 C 19,5 C 13,0 UV-I 5,2 C 58 % 68 % 100 % 1021,9 hPa 0,0 l/m 5,5 km/h (1 Bft) 2 min 6,7 km/h (2 Bft)
28.07.2009 11:22 21,6 C 19,6 C 13,3 UV-I 5,2 C 58 % 68 % 100 % 1021,9 hPa 0,0 l/m 5,3 km/h (1 Bft) 2 min 12,8 km/h (3 Bft)
28.07.2009 11:24 21,6 C 19,6 C 13,3 UV-I 5,1 C 58 % 67 % 100 % 1021,9 hPa 0,0 l/m 5,1 km/h (1 Bft) 2 min 12,8 km/h (3 Bft)
28.07.2009 11:28 21,6 C 19,7 C 11,8 UV-I 5,0 C 57 % 67 % 100 % 1021,9 hPa 0,0 l/m 4,6 km/h (1 Bft) 2 min 10,3 km/h (2 Bft)
28.07.2009 11:30 21,7 C 19,9 C 11,8 UV-I 5,0 C 57 % 66 % 100 % 1021,9 hPa 0,0 l/m 3,8 km/h (1 Bft) 2 min 10,3 km/h (2 Bft)
28.07.2009 11:32 21,7 C 19,9 C 11,6 UV-I 5,0 C 57 % 64 % 100 % 1021,9 hPa 0,0 l/m 3,8 km/h (1 Bft) 2 min 5,8 km/h (2 Bft)
28.07.2009 11:34 21,7 C 19,9 C 11,6 UV-I 4,9 C 57 % 65 % 100 % 1021,9 hPa 0,0 l/m 3,6 km/h (1 Bft) 2 min 5,8 km/h (2 Bft)
28.07.2009 11:36 21,7 C 20,0 C 10,4 UV-I 4,4 C 57 % 65 % 100 % 1021,8 hPa 0,0 l/m 3,8 km/h (1 Bft) 2 min 5,5 km/h (1 Bft)
28.07.2009 11:38 21,7 C 20,0 C 10,4 UV-I 4,3 C 57 % 66 % 100 % 1021,8 hPa 0,0 l/m 3,4 km/h (1 Bft) 2 min 0,0 km/h (0 Bft)
28.07.2009 11:40 21,7 C 20,0 C 10,4 UV-I 4,7 C 57 % 65 % 100 % 1021,8 hPa 0,0 l/m 3,6 km/h (1 Bft) 2 min 2,9 km/h (1 Bft)
28.07.2009 11:42 21,7 C 20,1 C 11,3 UV-I 4,9 C 57 % 65 % 100 % 1021,8 hPa 0,0 l/m 3,6 km/h (1 Bft) 2 min 10,1 km/h (2 Bft)
28.07.2009 11:44 21,7 C 20,2 C 11,3 UV-I 4,9 C 57 % 64 % 100 % 1021,8 hPa 0,0 l/m 3,6 km/h (1 Bft) 2 min 10,1 km/h (2 Bft)
28.07.2009 11:46 21,7 C 20,3 C 11,8 UV-I 4,8 C 57 % 64 % 100 % 1021,8 hPa 0,0 l/m 3,6 km/h (1 Bft) 2 min 8,7 km/h (2 Bft)
28.07.2009 11:48 21,7 C 20,4 C 11,8 UV-I 4,8 C 57 % 63 % 100 % 1021,8 hPa 0,0 l/m 3,6 km/h (1 Bft) 2 min 5,3 km/h (1 Bft)
28.07.2009 11:52 21,7 C 20,7 C 10,9 UV-I 4,9 C 57 % 62 % 100 % 1021,8 hPa 0,0 l/m 5,3 km/h (1 Bft) 2 min 14,9 km/h (3 Bft)
28.07.2009 11:54 21,7 C 20,6 C 10,9 UV-I 4,7 C 57 % 61 % 100 % 1021,8 hPa 0,0 l/m 5,3 km/h (1 Bft) 2 min 14,0 km/h (3 Bft)
28.07.2009 11:56 21,7 C 20,7 C 9,8 UV-I 4,4 C 56 % 60 % 100 % 1021,6 hPa 0,0 l/m 5,8 km/h (2 Bft) 2 min 13,5 km/h (3 Bft)
28.07.2009 11:58 21,8 C 20,6 C 9,8 UV-I 4,2 C 56 % 58 % 100 % 1021,6 hPa 0,0 l/m 6,5 km/h (2 Bft) 2 min 13,5 km/h (3 Bft)
28.07.2009 12:00 21,8 C 20,7 C 9,8 UV-I 3,4 C 56 % 58 % 97 % 1021,6 hPa 0,0 l/m 7,2 km/h (2 Bft) 2 min 11,8 km/h (2 Bft)
28.07.2009 12:02 21,8 C 20,6 C 7,0 UV-I 3,3 C 56 % 59 % 94 % 1021,6 hPa 0,0 l/m 6,5 km/h (2 Bft) 2 min 11,8 km/h (2 Bft)
28.07.2009 12:04 21,8 C 20,6 C 7,0 UV-I 3,3 C 56 % 59 % 94 % 1021,6 hPa 0,0 l/m 6,5 km/h (2 Bft) 2 min 3,4 km/h (1 Bft)
28.07.2009 12:10 21,8 C 20,9 C 7,8 UV-I 3,9 C 55 % 58 % 100 % 1021,6 hPa 0,0 l/m 5,3 km/h (1 Bft) 2 min 13,0 km/h (3 Bft)
28.07.2009 12:12 21,8 C 21,1 C 8,7 UV-I 3,8 C 55 % 59 % 100 % 1021,6 hPa 0,0 l/m 5,1 km/h (1 Bft) 2 min 7,2 km/h (2 Bft)
28.07.2009 12:14 21,8 C 21,1 C 8,7 UV-I 3,9 C 55 % 57 % 100 % 1021,6 hPa 0,0 l/m 5,3 km/h (1 Bft) 2 min 10,3 km/h (2 Bft)
28.07.2009 12:16 21,8 C 21,3 C 8,4 UV-I 3,8 C 55 % 56 % 100 % 1021,6 hPa 0,0 l/m 5,8 km/h (2 Bft) 2 min 10,3 km/h (2 Bft)
28.07.2009 12:18 21,8 C 21,3 C 8,4 UV-I 4,2 C 55 % 56 % 100 % 1021,6 hPa 0,0 l/m 5,8 km/h (2 Bft) 2 min 8,9 km/h (2 Bft)
28.07.2009 12:20 21,8 C 21,3 C 8,4 UV-I 4,2 C 55 % 56 % 100 % 1021,6 hPa 0,0 l/m 5,1 km/h (1 Bft) 2 min 9,1 km/h (2 Bft)
28.07.2009 12:22 21,9 C 21,3 C 7,5 UV-I 4,0 C 55 % 55 % 100 % 1021,6 hPa 0,0 l/m 5,5 km/h (1 Bft) 2 min 9,6 km/h (2 Bft)
28.07.2009 12:24 21,9 C 21,5 C 7,5 UV-I 3,8 C 55 % 54 % 100 % 1021,6 hPa 0,0 l/m 5,1 km/h (1 Bft) 2 min 10,3 km/h (2 Bft)
28.07.2009 12:28 21,9 C 21,7 C 8,3 UV-I 4,2 C 54 % 55 % 100 % 1021,6 hPa 0,0 l/m 4,8 km/h (1 Bft) 2 min 10,3 km/h (2 Bft)
28.07.2009 12:30 21,9 C 21,7 C 8,3 UV-I 4,6 C 54 % 53 % 100 % 1021,6 hPa 0,0 l/m 5,5 km/h (1 Bft) 2 min 7,9 km/h (2 Bft)
28.07.2009 12:32 21,9 C 21,8 C 7,1 UV-I 4,4 C 54 % 53 % 100 % 1021,6 hPa 0,0 l/m 5,1 km/h (1 Bft) 2 min 4,1 km/h (1 Bft)
28.07.2009 12:34 21,9 C 21,9 C 7,1 UV-I 4,1 C 54 % 54 % 100 % 1021,6 hPa 0,0 l/m 4,6 km/h (1 Bft) 2 min 7,0 km/h (2 Bft)
28.07.2009 12:36 21,9 C 21,9 C 6,5 UV-I 3,7 C 54 % 53 % 100 % 1021,8 hPa 0,0 l/m 4,8 km/h (1 Bft) 2 min 7,0 km/h (2 Bft)
28.07.2009 12:38 22,0 C 21,9 C 6,5 UV-I 3,5 C 54 % 53 % 100 % 1021,8 hPa 0,0 l/m 5,1 km/h (1 Bft) 2 min 9,1 km/h (2 Bft)
28.07.2009 12:40 22,0 C 21,9 C 6,5 UV-I 3,6 C 54 % 53 % 100 % 1021,8 hPa 0,0 l/m 4,8 km/h (1 Bft) 2 min 12,3 km/h (3 Bft)
28.07.2009 12:44 22,0 C 22,0 C 8,0 UV-I 4,1 C 54 % 50 % 100 % 1021,8 hPa 0,0 l/m 6,3 km/h (2 Bft) 2 min 12,3 km/h (3 Bft)
28.07.2009 12:46 22,0 C 22,1 C 8,1 UV-I 3,8 C 53 % 50 % 100 % 1021,8 hPa 0,0 l/m 6,5 km/h (2 Bft) 2 min 12,0 km/h (2 Bft)
28.07.2009 12:48 22,0 C 22,1 C 8,1 UV-I 3,9 C 53 % 49 % 100 % 1021,8 hPa 0,0 l/m 7,2 km/h (2 Bft) 2 min 8,2 km/h (2 Bft)
28.07.2009 12:50 22,0 C 22,3 C 8,1 UV-I 3,7 C 53 % 50 % 100 % 1021,8 hPa 0,0 l/m 7,0 km/h (2 Bft) 2 min 8,2 km/h (2 Bft)
28.07.2009 12:52 22,0 C 22,0 C 7,2 UV-I 4,1 C 53 % 49 % 100 % 1021,8 hPa 0,0 l/m 7,5 km/h (2 Bft) 2 min 17,3 km/h (3 Bft)
28.07.2009 12:54 22,0 C 22,1 C 7,2 UV-I 3,6 C 52 % 49 % 100 % 1021,8 hPa 0,0 l/m 6,7 km/h (2 Bft) 2 min 13,7 km/h (3 Bft)
28.07.2009 12:56 22,1 C 22,1 C 7,1 UV-I 3,4 C 52 % 50 % 97 % 1021,6 hPa 0,0 l/m 6,3 km/h (2 Bft) 2 min 7,5 km/h (2 Bft)
28.07.2009 12:58 22,1 C 22,2 C 7,1 UV-I 3,7 C 52 % 50 % 100 % 1021,6 hPa 0,0 l/m 5,3 km/h (1 Bft) 2 min 6,0 km/h (2 Bft)
28.07.2009 13:00 22,1 C 22,3 C 7,1 UV-I 3,5 C 52 % 49 % 100 % 1021,6 hPa 0,0 l/m 5,5 km/h (1 Bft) 2 min 11,3 km/h (2 Bft)
28.07.2009 13:02 22,1 C 22,3 C 5,8 UV-I 2,8 C 52 % 49 % 80 % 1021,6 hPa 0,0 l/m 5,1 km/h (1 Bft) 0 min 11,3 km/h (2 Bft)
28.07.2009 13:04 22,1 C 22,3 C 5,8 UV-I 3,1 C 52 % 50 % 89 % 1021,6 hPa 0,0 l/m 4,6 km/h (1 Bft) 2 min 2,4 km/h (1 Bft)
28.07.2009 13:06 22,1 C 22,3 C 5,7 UV-I 3,1 C 52 % 49 % 89 % 1021,6 hPa 0,0 l/m 4,1 km/h (1 Bft) 2 min 5,3 km/h (1 Bft)
28.07.2009 13:08 22,1 C 22,4 C 5,7 UV-I 2,9 C 52 % 48 % 83 % 1021,6 hPa 0,0 l/m 3,8 km/h (1 Bft) 2 min 5,3 km/h (1 Bft)
28.07.2009 13:10 22,2 C 22,5 C 5,7 UV-I 2,8 C 52 % 48 % 80 % 1021,6 hPa 0,0 l/m 3,6 km/h (1 Bft) 0 min 9,6 km/h (2 Bft)
28.07.2009 13:12 22,2 C 22,4 C 6,0 UV-I 2,6 C 52 % 49 % 74 % 1021,6 hPa 0,0 l/m 4,1 km/h (1 Bft) 0 min 19,7 km/h (3 Bft)
28.07.2009 13:14 22,2 C 22,4 C 6,0 UV-I 2,8 C 52 % 50 % 80 % 1021,6 hPa 0,0 l/m 3,4 km/h (1 Bft) 0 min 3,1 km/h (1 Bft)
28.07.2009 13:16 22,2 C 22,5 C 7,7 UV-I 3,2 C 51 % 49 % 91 % 1021,8 hPa 0,0 l/m 3,4 km/h (1 Bft) 2 min 7,5 km/h (2 Bft)
28.07.2009 13:18 22,2 C 22,6 C 7,7 UV-I 3,8 C 52 % 47 % 100 % 1021,8 hPa 0,0 l/m 4,1 km/h (1 Bft) 2 min 22,4 km/h (4 Bft)
28.07.2009 13:20 22,2 C 22,7 C 7,7 UV-I 4,0 C 52 % 47 % 100 % 1021,8 hPa 0,0 l/m 5,1 km/h (1 Bft) 2 min 22,4 km/h (4 Bft)
28.07.2009 13:22 22,3 C 22,7 C 7,9 UV-I 4,1 C 52 % 48 % 100 % 1021,8 hPa 0,0 l/m 4,8 km/h (1 Bft) 2 min 22,4 km/h (4 Bft)
28.07.2009 13:24 22,3 C 22,8 C 7,9 UV-I 4,2 C 51 % 48 % 100 % 1021,8 hPa 0,0 l/m 5,5 km/h (1 Bft) 2 min 6,5 km/h (2 Bft)
28.07.2009 13:28 22,4 C 22,9 C 7,8 UV-I 4,3 C 51 % 48 % 100 % 1021,8 hPa 0,0 l/m 6,5 km/h (2 Bft) 2 min 8,7 km/h (2 Bft)
28.07.2009 13:30 22,4 C 23,0 C 7,8 UV-I 4,2 C 51 % 47 % 100 % 1021,8 hPa 0,0 l/m 5,8 km/h (2 Bft) 2 min 8,7 km/h (2 Bft)
28.07.2009 13:32 22,4 C 23,1 C 7,2 UV-I 3,8 C 51 % 46 % 100 % 1021,8 hPa 0,0 l/m 6,7 km/h (2 Bft) 2 min 15,4 km/h (3 Bft)
28.07.2009 13:34 22,4 C 23,0 C 7,2 UV-I 3,5 C 51 % 47 % 100 % 1021,8 hPa 0,0 l/m 6,3 km/h (2 Bft) 2 min 15,4 km/h (3 Bft)
28.07.2009 13:36 22,4 C 23,1 C 5,5 UV-I 3,2 C 51 % 48 % 91 % 1021,6 hPa 0,0 l/m 5,3 km/h (1 Bft) 2 min 5,1 km/h (1 Bft)
28.07.2009 13:38 22,4 C 23,1 C 5,5 UV-I 3,3 C 51 % 48 % 94 % 1021,6 hPa 0,0 l/m 4,8 km/h (1 Bft) 2 min 4,8 km/h (1 Bft)
28.07.2009 13:40 22,5 C 23,1 C 5,5 UV-I 2,9 C 51 % 47 % 83 % 1021,6 hPa 0,0 l/m 4,6 km/h (1 Bft) 2 min 4,8 km/h (1 Bft)
28.07.2009 13:46 22,5 C 23,2 C 7,8 UV-I 3,1 C 51 % 48 % 89 % 1021,6 hPa 0,0 l/m 2,6 km/h (1 Bft) 2 min 5,3 km/h (1 Bft)
28.07.2009 13:48 22,6 C 23,3 C 7,8 UV-I 3,4 C 51 % 48 % 97 % 1021,6 hPa 0,0 l/m 3,1 km/h (1 Bft) 2 min 8,7 km/h (2 Bft)
28.07.2009 13:50 22,6 C 23,5 C 7,8 UV-I 3,1 C 51 % 47 % 89 % 1021,6 hPa 0,0 l/m 3,6 km/h (1 Bft) 2 min 7,0 km/h (2 Bft)
28.07.2009 13:54 22,7 C 23,5 C 6,1 UV-I 3,5 C 50 % 46 % 100 % 1021,6 hPa 0,0 l/m 4,6 km/h (1 Bft) 2 min 8,7 km/h (2 Bft)
28.07.2009 13:56 22,7 C 23,5 C 6,3 UV-I 3,4 C 50 % 45 % 97 % 1021,8 hPa 0,0 l/m 5,1 km/h (1 Bft) 2 min 5,3 km/h (1 Bft)
28.07.2009 14:00 22,8 C 23,4 C 6,3 UV-I 3,9 C 50 % 47 % 100 % 1021,8 hPa 0,0 l/m 5,3 km/h (1 Bft) 2 min 11,3 km/h (2 Bft)
28.07.2009 14:04 22,8 C 23,5 C 6,5 UV-I 3,5 C 50 % 46 % 100 % 1021,8 hPa 0,0 l/m 5,1 km/h (1 Bft) 2 min 6,7 km/h (2 Bft)
28.07.2009 14:09 22,9 C 23,7 C 5,7 UV-I 2,9 C 50 % 46 % 83 % 1021,8 hPa 0,0 l/m 4,1 km/h (1 Bft) 2 min 13,7 km/h (3 Bft)
28.07.2009 14:10 22,9 C 23,7 C 5,7 UV-I 2,7 C 50 % 46 % 77 % 1021,8 hPa 0,0 l/m 3,6 km/h (1 Bft) 0 min 5,1 km/h (1 Bft)
28.07.2009 14:12 22,9 C 23,7 C 5,5 UV-I 2,6 C 50 % 46 % 74 % 1021,8 hPa 0,0 l/m 3,6 km/h (1 Bft) 0 min 7,2 km/h (2 Bft)
28.07.2009 14:14 23,0 C 23,7 C 5,5 UV-I 2,5 C 50 % 46 % 71 % 1021,8 hPa 0,0 l/m 2,9 km/h (1 Bft) 0 min 7,2 km/h (2 Bft)
28.07.2009 14:16 23,0 C 23,6 C 5,2 UV-I 2,8 C 50 % 46 % 80 % 1021,0 hPa 0,0 l/m 3,1 km/h (1 Bft) 0 min 4,1 km/h (1 Bft)
28.07.2009 14:18 23,0 C 23,7 C 5,2 UV-I 2,7 C 50 % 46 % 77 % 1021,0 hPa 0,0 l/m 3,4 km/h (1 Bft) 0 min 4,6 km/h (1 Bft)
28.07.2009 14:20 23,1 C 23,8 C 5,2 UV-I 2,6 C 50 % 45 % 74 % 1021,0 hPa 0,0 l/m 3,1 km/h (1 Bft) 0 min 5,8 km/h (2 Bft)
28.07.2009 14:22 23,1 C 23,7 C 6,1 UV-I 2,7 C 50 % 45 % 77 % 1021,0 hPa 0,0 l/m 3,4 km/h (1 Bft) 0 min 11,5 km/h (2 Bft)
28.07.2009 14:24 23,1 C 23,7 C 6,1 UV-I 2,7 C 50 % 45 % 77 % 1021,0 hPa 0,0 l/m 4,1 km/h (1 Bft) 0 min 11,5 km/h (2 Bft)
28.07.2009 14:26 23,1 C 23,8 C 6,2 UV-I 2,8 C 49 % 45 % 80 % 1021,0 hPa 0,0 l/m 4,1 km/h (1 Bft) 0 min 6,5 km/h (2 Bft)
28.07.2009 14:28 23,2 C 23,9 C 6,2 UV-I 2,9 C 50 % 45 % 83 % 1021,0 hPa 0,0 l/m 4,3 km/h (1 Bft) 2 min 7,0 km/h (2 Bft)
28.07.2009 14:30 23,2 C 23,9 C 6,2 UV-I 3,2 C 49 % 45 % 91 % 1021,0 hPa 0,0 l/m 4,3 km/h (1 Bft) 2 min 7,0 km/h (2 Bft)
28.07.2009 14:32 23,2 C 23,9 C 6,3 UV-I 3,4 C 49 % 45 % 97 % 1021,0 hPa 0,0 l/m 4,1 km/h (1 Bft) 2 min 5,8 km/h (2 Bft)
28.07.2009 14:34 23,2 C 23,9 C 6,3 UV-I 3,3 C 49 % 45 % 94 % 1021,0 hPa 0,0 l/m 3,8 km/h (1 Bft) 2 min 6,0 km/h (2 Bft)
28.07.2009 14:36 23,3 C 23,9 C 4,2 UV-I 2,9 C 49 % 45 % 83 % 1022,4 hPa 0,0 l/m 3,6 km/h (1 Bft) 2 min 6,0 km/h (2 Bft)
28.07.2009 14:38 23,2 C 23,9 C 4,2 UV-I 2,5 C 49 % 44 % 71 % 1022,4 hPa 0,0 l/m 3,6 km/h (1 Bft) 0 min 4,1 km/h (1 Bft)
28.07.2009 14:40 23,2 C 23,7 C 4,2 UV-I 2,2 C 49 % 45 % 63 % 1022,4 hPa 0,0 l/m 3,4 km/h (1 Bft) 0 min 4,3 km/h (1 Bft)
28.07.2009 14:42 23,4 C 23,8 C 3,6 UV-I 1,6 C 49 % 45 % 46 % 1022,4 hPa 0,0 l/m 2,6 km/h (1 Bft) 0 min 4,3 km/h (1 Bft)
28.07.2009 14:44 23,4 C 23,8 C 3,6 UV-I 1,7 C 49 % 45 % 49 % 1022,4 hPa 0,0 l/m 2,9 km/h (1 Bft) 0 min 7,9 km/h (2 Bft)
28.07.2009 14:46 23,4 C 23,8 C 5,2 UV-I 2,1 C 49 % 44 % 60 % 1022,4 hPa 0,0 l/m 2,9 km/h (1 Bft) 0 min 7,9 km/h (2 Bft)
28.07.2009 14:48 23,4 C 23,7 C 5,2 UV-I 2,2 C 49 % 45 % 63 % 1022,4 hPa 0,0 l/m 3,4 km/h (1 Bft) 0 min 9,1 km/h (2 Bft)
28.07.2009 14:50 23,4 C 23,7 C 5,2 UV-I 1,8 C 49 % 44 % 51 % 1022,4 hPa 0,0 l/m 3,6 km/h (1 Bft) 0 min 9,1 km/h (2 Bft)
28.07.2009 14:52 23,4 C 23,6 C 4,2 UV-I 1,4 C 49 % 44 % 40 % 1022,4 hPa 0,0 l/m 4,3 km/h (1 Bft) 0 min 6,5 km/h (2 Bft)
28.07.2009 14:54 23,5 C 23,6 C 4,2 UV-I 1,1 C 49 % 45 % 31 % 1022,4 hPa 0,0 l/m 4,3 km/h (1 Bft) 0 min 6,5 km/h (2 Bft)
28.07.2009 14:56 23,5 C 23,7 C 6,0 UV-I 1,2 C 48 % 44 % 34 % 1022,0 hPa 0,0 l/m 4,3 km/h (1 Bft) 0 min 7,9 km/h (2 Bft)
28.07.2009 14:58 23,5 C 23,7 C 6,0 UV-I 1,9 C 48 % 44 % 54 % 1022,0 hPa 0,0 l/m 4,6 km/h (1 Bft) 0 min 11,8 km/h (2 Bft)
28.07.2009 15:00 23,6 C 23,6 C 6,0 UV-I 2,0 C 48 % 43 % 57 % 1022,0 hPa 0,0 l/m 4,6 km/h (1 Bft) 0 min 11,8 km/h (2 Bft)
28.07.2009 15:02 23,6 C 23,5 C 3,3 UV-I 1,7 C 48 % 45 % 49 % 1022,0 hPa 0,0 l/m 4,1 km/h (1 Bft) 0 min 8,2 km/h (2 Bft)
28.07.2009 15:04 23,6 C 23,5 C 3,3 UV-I 1,2 C 48 % 45 % 34 % 1022,0 hPa 0,0 l/m 4,3 km/h (1 Bft) 0 min 8,2 km/h (2 Bft)
28.07.2009 15:06 23,6 C 23,5 C 3,0 UV-I 0,8 C 48 % 45 % 23 % 1022,0 hPa 0,0 l/m 4,1 km/h (1 Bft) 0 min 5,3 km/h (1 Bft)
28.07.2009 15:08 23,6 C 23,5 C 3,0 UV-I 0,4 C 48 % 45 % 11 % 1022,0 hPa 0,0 l/m 3,1 km/h (1 Bft) 0 min 5,1 km/h (1 Bft)
28.07.2009 15:10 23,6 C 23,6 C 3,0 UV-I 0,5 C 48 % 46 % 14 % 1022,0 hPa 0,0 l/m 1,7 km/h (1 Bft) 0 min 0,0 km/h (0 Bft)
28.07.2009 15:12 23,7 C 23,6 C 5,6 UV-I 1,2 C 48 % 47 % 34 % 1022,0 hPa 0,0 l/m 1,4 km/h (1 Bft) 0 min 2,9 km/h (1 Bft)
28.07.2009 15:14 23,7 C 23,9 C 5,6 UV-I 2,0 C 48 % 46 % 57 % 1022,0 hPa 0,0 l/m 1,2 km/h (1 Bft) 0 min 2,9 km/h (1 Bft)
28.07.2009 15:16 23,7 C 23,9 C 5,6 UV-I 3,0 C 48 % 46 % 86 % 1021,7 hPa 0,0 l/m 1,7 km/h (1 Bft) 2 min 7,2 km/h (2 Bft)
28.07.2009 15:18 23,7 C 24,0 C 5,6 UV-I 3,4 C 48 % 45 % 97 % 1021,7 hPa 0,0 l/m 2,4 km/h (1 Bft) 2 min 7,2 km/h (2 Bft)
28.07.2009 15:20 23,8 C 24,1 C 5,6 UV-I 3,5 C 48 % 45 % 100 % 1021,7 hPa 0,0 l/m 3,1 km/h (1 Bft) 2 min 6,7 km/h (2 Bft)
28.07.2009 15:22 23,8 C 24,0 C 4,8 UV-I 3,3 C 48 % 44 % 94 % 1021,7 hPa 0,0 l/m 4,6 km/h (1 Bft) 2 min 6,7 km/h (2 Bft)
28.07.2009 15:24 23,8 C 24,0 C 4,8 UV-I 2,9 C 48 % 46 % 83 % 1021,7 hPa 0,0 l/m 4,3 km/h (1 Bft) 2 min 4,8 km/h (1 Bft)
28.07.2009 15:26 23,8 C 24,1 C 5,3 UV-I 2,8 C 48 % 45 % 80 % 1021,7 hPa 0,0 l/m 4,3 km/h (1 Bft) 0 min 4,8 km/h (1 Bft)
28.07.2009 15:28 23,8 C 24,1 C 5,3 UV-I 3,2 C 48 % 45 % 91 % 1021,7 hPa 0,0 l/m 4,6 km/h (1 Bft) 2 min 10,8 km/h (2 Bft)
28.07.2009 15:30 23,9 C 24,2 C 5,3 UV-I 3,6 C 48 % 45 % 100 % 1021,7 hPa 0,0 l/m 4,6 km/h (1 Bft) 2 min 10,8 km/h (2 Bft)
28.07.2009 15:32 23,9 C 24,3 C 6,5 UV-I 4,0 C 48 % 45 % 100 % 1021,7 hPa 0,0 l/m 3,6 km/h (1 Bft) 2 min 8,4 km/h (2 Bft)
28.07.2009 15:34 24,0 C 24,5 C 6,5 UV-I 4,2 C 48 % 45 % 100 % 1021,7 hPa 0,0 l/m 3,8 km/h (1 Bft) 2 min 7,2 km/h (2 Bft)
28.07.2009 15:36 24,0 C 24,5 C 6,6 UV-I 4,6 C 47 % 44 % 100 % 1021,8 hPa 0,0 l/m 4,1 km/h (1 Bft) 2 min 11,1 km/h (2 Bft)
28.07.2009 15:38 24,0 C 24,5 C 6,6 UV-I 4,7 C 47 % 44 % 100 % 1021,8 hPa 0,0 l/m 4,1 km/h (1 Bft) 2 min 11,1 km/h (2 Bft)
28.07.2009 15:40 24,0 C 24,6 C 6,6 UV-I 4,7 C 47 % 44 % 100 % 1021,8 hPa 0,0 l/m 4,1 km/h (1 Bft) 2 min 9,6 km/h (2 Bft)
28.07.2009 15:42 24,1 C 24,7 C 6,6 UV-I 4,8 C 47 % 43 % 100 % 1021,8 hPa 0,0 l/m 4,3 km/h (1 Bft) 2 min 7,9 km/h (2 Bft)
28.07.2009 15:44 24,2 C 24,7 C 6,6 UV-I 4,9 C 47 % 43 % 100 % 1021,8 hPa 0,0 l/m 5,1 km/h (1 Bft) 2 min 7,9 km/h (2 Bft)
28.07.2009 15:46 24,2 C 24,7 C 6,8 UV-I 4,9 C 47 % 44 % 100 % 1021,8 hPa 0,0 l/m 4,8 km/h (1 Bft) 2 min 6,7 km/h (2 Bft)
28.07.2009 15:48 24,2 C 24,9 C 6,8 UV-I 5,0 C 47 % 44 % 100 % 1021,8 hPa 0,0 l/m 4,6 km/h (1 Bft) 2 min 8,2 km/h (2 Bft)
28.07.2009 15:50 24,3 C 24,9 C 6,8 UV-I 5,0 C 47 % 42 % 100 % 1021,8 hPa 0,0 l/m 5,1 km/h (1 Bft) 2 min 8,2 km/h (2 Bft)
28.07.2009 15:52 24,2 C 24,7 C 5,3 UV-I 4,7 C 47 % 43 % 100 % 1021,8 hPa 0,0 l/m 5,1 km/h (1 Bft) 2 min 15,6 km/h (3 Bft)
28.07.2009 15:54 24,4 C 24,7 C 5,3 UV-I 4,1 C 47 % 43 % 100 % 1021,8 hPa 0,0 l/m 4,6 km/h (1 Bft) 2 min 15,6 km/h (3 Bft)
28.07.2009 15:56 24,4 C 24,7 C 3,1 UV-I 3,4 C 47 % 43 % 97 % 1021,9 hPa 0,0 l/m 4,8 km/h (1 Bft) 2 min 7,2 km/h (2 Bft)
28.07.2009 15:58 24,4 C 24,7 C 3,1 UV-I 2,5 C 47 % 44 % 71 % 1021,9 hPa 0,0 l/m 4,8 km/h (1 Bft) 0 min 5,8 km/h (2 Bft)
28.07.2009 16:00 24,4 C 24,6 C 3,1 UV-I 2,5 C 47 % 44 % 71 % 1021,9 hPa 0,0 l/m 3,6 km/h (1 Bft) 0 min 4,6 km/h (1 Bft)
28.07.2009 16:02 24,5 C 24,7 C 5,7 UV-I 2,5 C 47 % 43 % 71 % 1021,9 hPa 0,0 l/m 3,4 km/h (1 Bft) 0 min 4,6 km/h (1 Bft)
28.07.2009 16:04 24,5 C 24,6 C 5,7 UV-I 2,5 C 47 % 43 % 71 % 1021,9 hPa 0,0 l/m 2,6 km/h (1 Bft) 0 min 5,3 km/h (1 Bft)
28.07.2009 16:06 24,5 C 24,7 C 5,0 UV-I 2,3 C 47 % 44 % 66 % 1021,9 hPa 0,0 l/m 1,9 km/h (1 Bft) 0 min 5,3 km/h (1 Bft)
28.07.2009 16:08 24,6 C 24,9 C 5,0 UV-I 2,4 C 47 % 43 % 69 % 1021,9 hPa 0,0 l/m 1,9 km/h (1 Bft) 0 min 8,7 km/h (2 Bft)
28.07.2009 16:10 24,6 C 24,9 C 5,0 UV-I 2,8 C 46 % 44 % 80 % 1021,9 hPa 0,0 l/m 2,2 km/h (1 Bft) 0 min 8,7 km/h (2 Bft)
28.07.2009 16:12 24,6 C 25,0 C 6,8 UV-I 3,0 C 46 % 42 % 86 % 1021,9 hPa 0,0 l/m 2,9 km/h (1 Bft) 2 min 5,3 km/h (1 Bft)
28.07.2009 16:14 24,7 C 24,9 C 6,8 UV-I 3,1 C 46 % 41 % 89 % 1021,9 hPa 0,0 l/m 3,6 km/h (1 Bft) 2 min 11,1 km/h (2 Bft)
28.07.2009 16:16 24,7 C 25,0 C 6,0 UV-I 2,9 C 46 % 42 % 83 % 1021,7 hPa 0,0 l/m 4,8 km/h (1 Bft) 2 min 11,1 km/h (2 Bft)
28.07.2009 16:18 24,7 C 24,8 C 6,0 UV-I 3,0 C 46 % 42 % 86 % 1021,7 hPa 0,0 l/m 5,8 km/h (2 Bft) 2 min 9,1 km/h (2 Bft)
28.07.2009 16:20 24,8 C 24,9 C 6,0 UV-I 3,0 C 46 % 42 % 86 % 1021,7 hPa 0,0 l/m 5,8 km/h (2 Bft) 2 min 9,1 km/h (2 Bft)
28.07.2009 16:22 24,8 C 24,9 C 6,9 UV-I 2,9 C 46 % 41 % 83 % 1021,7 hPa 0,0 l/m 5,8 km/h (2 Bft) 2 min 12,3 km/h (3 Bft)
28.07.2009 16:24 24,8 C 24,8 C 6,9 UV-I 3,0 C 46 % 42 % 86 % 1021,7 hPa 0,0 l/m 6,0 km/h (2 Bft) 2 min 12,3 km/h (3 Bft)
28.07.2009 16:26 24,8 C 24,8 C 7,4 UV-I 3,2 C 46 % 42 % 91 % 1021,7 hPa 0,0 l/m 5,5 km/h (1 Bft) 2 min 8,9 km/h (2 Bft)
28.07.2009 16:28 24,9 C 24,8 C 7,4 UV-I 3,7 C 46 % 42 % 100 % 1021,7 hPa 0,0 l/m 5,3 km/h (1 Bft) 2 min 8,9 km/h (2 Bft)
28.07.2009 16:30 24,9 C 24,9 C 7,4 UV-I 3,8 C 46 % 42 % 100 % 1021,7 hPa 0,0 l/m 4,6 km/h (1 Bft) 2 min 8,7 km/h (2 Bft)
28.07.2009 16:32 24,9 C 25,0 C 8,4 UV-I 4,1 C 46 % 40 % 100 % 1021,7 hPa 0,0 l/m 5,8 km/h (2 Bft) 2 min 15,9 km/h (3 Bft)
28.07.2009 16:34 25,0 C 24,8 C 8,4 UV-I 4,1 C 46 % 41 % 100 % 1021,7 hPa 0,0 l/m 5,3 km/h (1 Bft) 2 min 15,9 km/h (3 Bft)
28.07.2009 16:36 25,0 C 24,8 C 8,4 UV-I 3,9 C 45 % 42 % 100 % 1020,8 hPa 0,0 l/m 5,3 km/h (1 Bft) 2 min 5,5 km/h (1 Bft)
28.07.2009 16:38 25,0 C 24,9 C 8,4 UV-I 4,0 C 45 % 42 % 100 % 1020,8 hPa 0,0 l/m 4,8 km/h (1 Bft) 2 min 8,7 km/h (2 Bft)
28.07.2009 16:40 25,0 C 25,0 C 8,4 UV-I 4,1 C 45 % 42 % 100 % 1020,8 hPa 0,0 l/m 4,3 km/h (1 Bft) 2 min 8,7 km/h (2 Bft)
28.07.2009 16:42 25,1 C 25,2 C 10,5 UV-I 4,4 C 45 % 43 % 100 % 1020,8 hPa 0,0 l/m 3,8 km/h (1 Bft) 2 min 5,5 km/h (1 Bft)
28.07.2009 16:44 25,1 C 25,3 C 10,5 UV-I 4,6 C 45 % 43 % 100 % 1020,8 hPa 0,0 l/m 2,2 km/h (1 Bft) 2 min 5,5 km/h (1 Bft)
28.07.2009 16:46 25,2 C 25,4 C 10,8 UV-I 5,0 C 45 % 42 % 100 % 1020,8 hPa 0,0 l/m 2,4 km/h (1 Bft) 2 min 5,1 km/h (1 Bft)
28.07.2009 16:48 25,2 C 25,5 C 10,8 UV-I 5,3 C 45 % 41 % 100 % 1020,8 hPa 0,0 l/m 2,6 km/h (1 Bft) 2 min 5,8 km/h (2 Bft)
28.07.2009 16:50 25,2 C 25,7 C 10,8 UV-I 5,3 C 45 % 42 % 100 % 1020,8 hPa 0,0 l/m 2,6 km/h (1 Bft) 2 min 6,7 km/h (2 Bft)
28.07.2009 16:52 25,3 C 25,6 C 10,9 UV-I 5,4 C 45 % 41 % 100 % 1020,8 hPa 0,0 l/m 3,1 km/h (1 Bft) 2 min 6,7 km/h (2 Bft)
28.07.2009 16:54 25,2 C 25,8 C 10,9 UV-I 5,3 C 45 % 41 % 100 % 1020,8 hPa 0,0 l/m 3,1 km/h (1 Bft) 2 min 3,1 km/h (1 Bft)
28.07.2009 16:56 25,4 C 25,9 C 6,2 UV-I 5,3 C 45 % 41 % 100 % 1018,3 hPa 0,0 l/m 3,1 km/h (1 Bft) 2 min 9,4 km/h (2 Bft)
28.07.2009 16:58 25,4 C 25,8 C 6,2 UV-I 5,2 C 45 % 41 % 100 % 1018,3 hPa 0,0 l/m 3,4 km/h (1 Bft) 2 min 9,6 km/h (2 Bft)
28.07.2009 17:00 25,4 C 25,8 C 6,2 UV-I 4,2 C 45 % 42 % 100 % 1018,3 hPa 0,0 l/m 3,1 km/h (1 Bft) 2 min 9,9 km/h (2 Bft)
28.07.2009 17:02 25,5 C 25,7 C 3,3 UV-I 3,4 C 45 % 41 % 97 % 1018,3 hPa 0,0 l/m 3,4 km/h (1 Bft) 2 min 9,9 km/h (2 Bft)
28.07.2009 17:04 25,5 C 25,6 C 3,3 UV-I 3,0 C 44 % 41 % 86 % 1018,3 hPa 0,0 l/m 2,9 km/h (1 Bft) 2 min 3,8 km/h (1 Bft)
28.07.2009 17:06 25,5 C 25,7 C 3,3 UV-I 3,0 C 44 % 40 % 86 % 1018,3 hPa 0,0 l/m 3,1 km/h (1 Bft) 2 min 0,0 km/h (0 Bft)
28.07.2009 17:08 25,6 C 25,6 C 3,3 UV-I 3,3 C 44 % 41 % 94 % 1018,3 hPa 0,0 l/m 3,1 km/h (1 Bft) 2 min 7,2 km/h (2 Bft)
28.07.2009 17:10 25,6 C 25,7 C 3,3 UV-I 3,0 C 44 % 42 % 86 % 1018,3 hPa 0,0 l/m 3,1 km/h (1 Bft) 2 min 7,2 km/h (2 Bft)
28.07.2009 17:12 25,6 C 25,7 C 3,0 UV-I 2,6 C 44 % 41 % 74 % 1018,3 hPa 0,0 l/m 2,6 km/h (1 Bft) 0 min 6,0 km/h (2 Bft)
28.07.2009 17:14 25,6 C 25,6 C 3,0 UV-I 2,4 C 44 % 40 % 69 % 1018,3 hPa 0,0 l/m 3,6 km/h (1 Bft) 0 min 11,8 km/h (2 Bft)
28.07.2009 17:16 25,6 C 25,5 C 3,1 UV-I 2,2 C 44 % 41 % 63 % 1021,1 hPa 0,0 l/m 3,6 km/h (1 Bft) 0 min 11,8 km/h (2 Bft)
28.07.2009 17:18 25,7 C 25,5 C 3,1 UV-I 2,3 C 44 % 41 % 66 % 1021,1 hPa 0,0 l/m 3,8 km/h (1 Bft) 0 min 5,8 km/h (2 Bft)
28.07.2009 17:20 25,7 C 25,3 C 3,1 UV-I 2,3 C 44 % 40 % 66 % 1021,1 hPa 0,0 l/m 4,1 km/h (1 Bft) 0 min 9,9 km/h (2 Bft)
28.07.2009 17:22 25,7 C 25,1 C 2,5 UV-I 1,7 C 44 % 40 % 49 % 1021,1 hPa 0,0 l/m 4,3 km/h (1 Bft) 0 min 9,9 km/h (2 Bft)
28.07.2009 17:24 25,7 C 25,0 C 2,5 UV-I 1,3 C 44 % 41 % 37 % 1021,1 hPa 0,0 l/m 4,1 km/h (1 Bft) 0 min 3,8 km/h (1 Bft)
28.07.2009 17:26 25,7 C 25,1 C 2,6 UV-I 0,8 C 44 % 42 % 23 % 1021,1 hPa 0,0 l/m 3,4 km/h (1 Bft) 0 min 5,1 km/h (1 Bft)
28.07.2009 17:28 25,7 C 25,1 C 2,6 UV-I 1,1 C 44 % 41 % 31 % 1021,1 hPa 0,0 l/m 3,4 km/h (1 Bft) 0 min 6,7 km/h (2 Bft)
28.07.2009 17:30 25,7 C 25,0 C 2,6 UV-I 1,7 C 44 % 40 % 49 % 1021,1 hPa 0,0 l/m 4,1 km/h (1 Bft) 0 min 6,7 km/h (2 Bft)
28.07.2009 17:32 25,7 C 25,0 C 2,7 UV-I 2,3 C 44 % 41 % 66 % 1021,1 hPa 0,0 l/m 3,6 km/h (1 Bft) 0 min 6,7 km/h (2 Bft)
28.07.2009 17:34 25,7 C 25,1 C 2,7 UV-I 2,8 C 44 % 41 % 80 % 1021,1 hPa 0,0 l/m 4,1 km/h (1 Bft) 0 min 11,3 km/h (2 Bft)
28.07.2009 17:36 25,8 C 25,1 C 2,6 UV-I 3,1 C 44 % 41 % 89 % 1021,2 hPa 0,0 l/m 4,3 km/h (1 Bft) 2 min 11,3 km/h (2 Bft)
28.07.2009 17:38 25,8 C 25,1 C 2,6 UV-I 3,4 C 44 % 41 % 97 % 1021,2 hPa 0,0 l/m 4,6 km/h (1 Bft) 2 min 5,3 km/h (1 Bft)
28.07.2009 17:40 25,8 C 25,1 C 2,6 UV-I 3,6 C 44 % 41 % 100 % 1021,2 hPa 0,0 l/m 4,3 km/h (1 Bft) 2 min 7,2 km/h (2 Bft)
28.07.2009 17:42 25,8 C 25,1 C 2,6 UV-I 3,6 C 44 % 41 % 100 % 1021,2 hPa 0,0 l/m 4,1 km/h (1 Bft) 2 min 7,2 km/h (2 Bft)
28.07.2009 17:44 25,8 C 25,1 C 2,6 UV-I 3,4 C 44 % 41 % 97 % 1021,2 hPa 0,0 l/m 3,8 km/h (1 Bft) 2 min 4,3 km/h (1 Bft)
28.07.2009 17:46 25,8 C 25,0 C 2,5 UV-I 3,6 C 44 % 41 % 100 % 1021,2 hPa 0,0 l/m 3,8 km/h (1 Bft) 2 min 8,9 km/h (2 Bft)
28.07.2009 17:48 25,8 C 25,1 C 2,5 UV-I 3,9 C 44 % 42 % 100 % 1021,2 hPa 0,0 l/m 3,4 km/h (1 Bft) 2 min 8,9 km/h (2 Bft)
28.07.2009 17:50 25,8 C 25,1 C 2,5 UV-I 4,2 C 43 % 41 % 100 % 1021,2 hPa 0,0 l/m 2,9 km/h (1 Bft) 2 min 9,4 km/h (2 Bft)
28.07.2009 17:52 25,8 C 25,1 C 2,3 UV-I 4,4 C 44 % 41 % 100 % 1021,2 hPa 0,0 l/m 2,6 km/h (1 Bft) 2 min 9,4 km/h (2 Bft)
28.07.2009 17:54 25,8 C 25,1 C 2,3 UV-I 4,5 C 44 % 41 % 100 % 1021,2 hPa 0,0 l/m 2,9 km/h (1 Bft) 2 min 7,2 km/h (2 Bft)
28.07.2009 17:56 25,8 C 25,1 C 2,3 UV-I 4,5 C 43 % 41 % 100 % 1020,9 hPa 0,0 l/m 2,9 km/h (1 Bft) 2 min 5,1 km/h (1 Bft)
28.07.2009 17:58 25,9 C 25,1 C 2,3 UV-I 4,5 C 43 % 41 % 100 % 1020,9 hPa 0,0 l/m 3,1 km/h (1 Bft) 2 min 6,7 km/h (2 Bft)
28.07.2009 18:02 25,9 C 25,1 C 2,6 UV-I 4,3 C 43 % 41 % 100 % 1020,9 hPa 0,0 l/m 3,6 km/h (1 Bft) 2 min 8,9 km/h (2 Bft)
28.07.2009 18:04 25,9 C 25,1 C 2,6 UV-I 4,1 C 43 % 41 % 100 % 1020,9 hPa 0,0 l/m 3,6 km/h (1 Bft) 2 min 8,9 km/h (2 Bft)
28.07.2009 18:06 25,9 C 25,1 C 2,3 UV-I 4,1 C 43 % 41 % 100 % 1020,9 hPa 0,0 l/m 3,1 km/h (1 Bft) 2 min 6,5 km/h (2 Bft)
28.07.2009 18:08 25,9 C 25,1 C 2,3 UV-I 4,0 C 43 % 40 % 100 % 1020,9 hPa 0,0 l/m 3,1 km/h (1 Bft) 2 min 5,3 km/h (1 Bft)
28.07.2009 18:10 26,0 C 24,9 C 2,3 UV-I 4,1 C 43 % 41 % 100 % 1020,9 hPa 0,0 l/m 3,4 km/h (1 Bft) 2 min 8,2 km/h (2 Bft)
28.07.2009 18:12 26,0 C 24,9 C 2,0 UV-I 4,2 C 43 % 41 % 100 % 1020,9 hPa 0,0 l/m 3,1 km/h (1 Bft) 2 min 8,2 km/h (2 Bft)
28.07.2009 18:14 26,0 C 24,9 C 2,0 UV-I 4,3 C 43 % 41 % 100 % 1020,9 hPa 0,0 l/m 2,4 km/h (1 Bft) 2 min 0,0 km/h (0 Bft)
28.07.2009 18:16 26,0 C 24,9 C 2,0 UV-I 4,5 C 43 % 41 % 100 % 1021,1 hPa 0,0 l/m 2,2 km/h (1 Bft) 2 min 3,4 km/h (1 Bft)
28.07.2009 18:18 26,0 C 24,8 C 2,0 UV-I 4,6 C 43 % 44 % 100 % 1021,1 hPa 0,0 l/m 2,4 km/h (1 Bft) 2 min 4,6 km/h (1 Bft)
28.07.2009 18:20 26,0 C 24,6 C 2,0 UV-I 4,1 C 43 % 44 % 100 % 1021,1 hPa 0,0 l/m 2,6 km/h (1 Bft) 2 min 4,6 km/h (1 Bft)
28.07.2009 18:22 26,0 C 24,5 C 2,1 UV-I 3,0 C 43 % 43 % 86 % 1021,1 hPa 0,0 l/m 2,6 km/h (1 Bft) 2 min 8,4 km/h (2 Bft)
28.07.2009 18:24 26,0 C 24,4 C 2,1 UV-I 3,0 C 43 % 43 % 86 % 1021,1 hPa 0,0 l/m 2,9 km/h (1 Bft) 2 min 8,4 km/h (2 Bft)
28.07.2009 18:26 26,0 C 24,2 C 1,9 UV-I 2,9 C 43 % 43 % 83 % 1021,1 hPa 0,0 l/m 3,1 km/h (1 Bft) 2 min 3,4 km/h (1 Bft)
28.07.2009 18:28 26,0 C 24,2 C 1,9 UV-I 2,7 C 43 % 43 % 77 % 1021,1 hPa 0,0 l/m 2,6 km/h (1 Bft) 0 min 3,1 km/h (1 Bft)
28.07.2009 18:30 26,0 C 24,3 C 1,9 UV-I 2,3 C 43 % 44 % 66 % 1021,1 hPa 0,0 l/m 2,9 km/h (1 Bft) 0 min 7,7 km/h (2 Bft)
28.07.2009 18:32 26,0 C 24,2 C 1,9 UV-I 2,0 C 43 % 43 % 57 % 1021,1 hPa 0,0 l/m 2,9 km/h (1 Bft) 0 min 7,7 km/h (2 Bft)
28.07.2009 18:34 26,0 C 24,2 C 1,9 UV-I 1,8 C 43 % 42 % 51 % 1021,1 hPa 0,0 l/m 2,4 km/h (1 Bft) 0 min 4,6 km/h (1 Bft)
28.07.2009 18:36 26,0 C 24,1 C 1,9 UV-I 1,9 C 43 % 43 % 54 % 1021,6 hPa 0,0 l/m 2,2 km/h (1 Bft) 0 min 4,3 km/h (1 Bft)
28.07.2009 18:38 26,0 C 24,1 C 1,9 UV-I 2,0 C 43 % 43 % 57 % 1021,6 hPa 0,0 l/m 1,9 km/h (1 Bft) 0 min 4,3 km/h (1 Bft)
28.07.2009 18:40 26,0 C 24,1 C 1,9 UV-I 2,1 C 43 % 42 % 60 % 1021,6 hPa 0,0 l/m 1,9 km/h (1 Bft) 0 min 5,8 km/h (2 Bft)
28.07.2009 18:42 26,0 C 24,0 C 2,0 UV-I 2,3 C 43 % 42 % 66 % 1021,6 hPa 0,0 l/m 1,4 km/h (1 Bft) 0 min 5,8 km/h (2 Bft)
28.07.2009 18:44 26,0 C 23,9 C 2,0 UV-I 2,5 C 43 % 42 % 71 % 1021,6 hPa 0,0 l/m 1,2 km/h (1 Bft) 0 min 3,1 km/h (1 Bft)
28.07.2009 18:46 25,9 C 23,8 C 1,9 UV-I 2,6 C 43 % 42 % 74 % 1021,6 hPa 0,0 l/m 1,2 km/h (1 Bft) 0 min 3,1 km/h (1 Bft)
28.07.2009 18:48 25,9 C 23,9 C 1,9 UV-I 2,5 C 43 % 42 % 71 % 1021,6 hPa 0,0 l/m 1,0 km/h (0 Bft) 0 min 0,0 km/h (0 Bft)
28.07.2009 18:50 25,9 C 23,9 C 1,9 UV-I 2,4 C 43 % 43 % 69 % 1021,6 hPa 0,0 l/m 1,4 km/h (1 Bft) 0 min 0,0 km/h (0 Bft)
28.07.2009 18:52 25,9 C 23,8 C 1,6 UV-I 2,3 C 43 % 43 % 66 % 1021,6 hPa 0,0 l/m 0,7 km/h (0 Bft) 0 min 0,0 km/h (0 Bft)
28.07.2009 18:54 25,9 C 23,8 C 1,6 UV-I 2,2 C 43 % 44 % 63 % 1021,6 hPa 0,0 l/m 1,0 km/h (0 Bft) 0 min 4,3 km/h (1 Bft)
28.07.2009 18:58 25,8 C 23,7 C 1,6 UV-I 1,7 C 43 % 44 % 49 % 1021,4 hPa 0,0 l/m 1,2 km/h (1 Bft) 0 min 4,3 km/h (1 Bft)
28.07.2009 19:00 25,8 C 23,7 C 1,6 UV-I 1,5 C 43 % 44 % 43 % 1021,4 hPa 0,0 l/m 1,2 km/h (1 Bft) 0 min 0,0 km/h (0 Bft)
28.07.2009 19:02 25,8 C 23,7 C 1,6 UV-I 1,2 C 43 % 44 % 34 % 1021,4 hPa 0,0 l/m 1,2 km/h (1 Bft) 0 min 0,0 km/h (0 Bft)
28.07.2009 19:04 25,7 C 23,6 C 1,6 UV-I 1,0 C 43 % 44 % 29 % 1021,4 hPa 0,0 l/m 1,2 km/h (1 Bft) 0 min 0,0 km/h (0 Bft)
28.07.2009 19:06 25,7 C 23,7 C 1,6 UV-I 0,7 C 43 % 45 % 20 % 1021,4 hPa 0,0 l/m 0,5 km/h (0 Bft) 0 min 0,0 km/h (0 Bft)
28.07.2009 19:08 25,7 C 23,6 C 1,6 UV-I 0,7 C 43 % 44 % 20 % 1021,4 hPa 0,0 l/m 0,2 km/h (0 Bft) 0 min 0,0 km/h (0 Bft)
28.07.2009 19:10 25,7 C 23,5 C 1,6 UV-I 0,6 C 43 % 44 % 17 % 1021,4 hPa 0,0 l/m 0,7 km/h (0 Bft) 0 min 0,0 km/h (0 Bft)
28.07.2009 19:12 25,6 C 23,5 C 1,6 UV-I 0,4 C 43 % 45 % 11 % 1021,4 hPa 0,0 l/m 0,7 km/h (0 Bft) 0 min 0,0 km/h (0 Bft)
28.07.2009 19:14 25,6 C 23,5 C 1,6 UV-I 0,2 C 43 % 45 % 6 % 1021,4 hPa 0,0 l/m 0,7 km/h (0 Bft) 0 min 3,1 km/h (1 Bft)
28.07.2009 19:16 25,6 C 23,5 C 1,3 UV-I 0,1 C 44 % 45 % 3 % 1021,4 hPa 0,0 l/m 0,7 km/h (0 Bft) 0 min 3,1 km/h (1 Bft)
28.07.2009 19:18 25,6 C 23,5 C 1,3 UV-I 0,0 C 43 % 45 % 0 % 1021,4 hPa 0,0 l/m 0,7 km/h (0 Bft) 0 min 0,0 km/h (0 Bft)
28.07.2009 19:20 25,6 C 23,5 C 1,3 UV-I 0,0 C 44 % 45 % 0 % 1021,4 hPa 0,0 l/m 0,5 km/h (0 Bft) 0 min 3,8 km/h (1 Bft)
28.07.2009 19:22 25,5 C 23,4 C 1,3 UV-I 0,0 C 44 % 45 % 0 % 1021,4 hPa 0,0 l/m 0,7 km/h (0 Bft) 0 min 3,8 km/h (1 Bft)
28.07.2009 19:24 25,5 C 23,3 C 1,3 UV-I 0,0 C 44 % 46 % 0 % 1021,4 hPa 0,0 l/m 1,0 km/h (0 Bft) 0 min 2,9 km/h (1 Bft)
28.07.2009 19:26 25,5 C 23,3 C 1,2 UV-I 0,0 C 44 % 45 % 0 % 1021,4 hPa 0,0 l/m 1,0 km/h (0 Bft) 0 min 3,8 km/h (1 Bft)
28.07.2009 19:28 25,4 C 23,3 C 1,2 UV-I 0,0 C 44 % 45 % 0 % 1021,4 hPa 0,0 l/m 1,2 km/h (1 Bft) 0 min 7,2 km/h (2 Bft)
28.07.2009 19:30 25,4 C 23,2 C 1,2 UV-I 0,0 C 44 % 46 % 0 % 1021,4 hPa 0,0 l/m 1,2 km/h (1 Bft) 0 min 7,2 km/h (2 Bft)
28.07.2009 19:32 25,4 C 23,3 C 1,1 UV-I 0,0 C 44 % 46 % 0 % 1021,4 hPa 0,0 l/m 0,7 km/h (0 Bft) 0 min 2,4 km/h (1 Bft)
28.07.2009 19:34 25,4 C 23,1 C 1,1 UV-I 0,0 C 44 % 46 % 0 % 1021,4 hPa 0,0 l/m 0,7 km/h (0 Bft) 0 min 4,1 km/h (1 Bft)
28.07.2009 19:36 25,4 C 23,1 C 1,1 UV-I 0,0 C 44 % 45 % 0 % 1022,2 hPa 0,0 l/m 0,7 km/h (0 Bft) 0 min 4,1 km/h (1 Bft)
28.07.2009 19:38 25,2 C 23,0 C 1,1 UV-I 0,0 C 44 % 45 % 0 % 1022,2 hPa 0,0 l/m 1,0 km/h (0 Bft) 0 min 5,5 km/h (1 Bft)
28.07.2009 19:40 25,3 C 23,1 C 1,1 UV-I 0,0 C 44 % 45 % 0 % 1022,2 hPa 0,0 l/m 0,7 km/h (0 Bft) 0 min 5,5 km/h (1 Bft)
28.07.2009 19:42 25,3 C 22,9 C 1,0 UV-I 0,0 C 44 % 46 % 0 % 1022,2 hPa 0,0 l/m 0,7 km/h (0 Bft) 0 min 0,0 km/h (0 Bft)
28.07.2009 19:44 25,2 C 22,9 C 1,0 UV-I 0,0 C 44 % 46 % 0 % 1022,2 hPa 0,0 l/m 1,0 km/h (0 Bft) 0 min 0,0 km/h (0 Bft)
28.07.2009 19:46 25,2 C 22,9 C 1,0 UV-I 0,0 C 44 % 46 % 0 % 1022,2 hPa 0,0 l/m 0,7 km/h (0 Bft) 0 min 0,0 km/h (0 Bft)
28.07.2009 19:50 25,2 C 22,8 C 1,0 UV-I 0,0 C 44 % 46 % 0 % 1022,2 hPa 0,0 l/m 0,5 km/h (0 Bft) 0 min 2,9 km/h (1 Bft)
28.07.2009 19:52 25,2 C 22,8 C 1,0 UV-I 0,0 C 44 % 47 % 0 % 1022,2 hPa 0,0 l/m 0,5 km/h (0 Bft) 0 min 2,9 km/h (1 Bft)
28.07.2009 19:54 25,1 C 22,8 C 1,0 UV-I 0,0 C 44 % 47 % 0 % 1022,2 hPa 0,0 l/m 0,2 km/h (0 Bft) 0 min 0,0 km/h (0 Bft)
28.07.2009 19:56 25,1 C 22,8 C 0,8 UV-I 0,0 C 44 % 47 % 0 % 1021,1 hPa 0,0 l/m 0,2 km/h (0 Bft) 0 min 0,0 km/h (0 Bft)
28.07.2009 19:58 25,1 C 22,7 C 0,8 UV-I 0,0 C 44 % 47 % 0 % 1021,1 hPa 0,0 l/m 0,2 km/h (0 Bft) 0 min 0,0 km/h (0 Bft)
28.07.2009 20:00 25,1 C 22,7 C 0,8 UV-I 0,0 C 44 % 47 % 0 % 1021,1 hPa 0,0 l/m 0,5 km/h (0 Bft) 0 min 5,8 km/h (2 Bft)
28.07.2009 20:02 25,0 C 22,7 C 0,7 UV-I 0,0 C 44 % 47 % 0 % 1021,1 hPa 0,0 l/m 1,0 km/h (0 Bft) 0 min 5,8 km/h (2 Bft)
28.07.2009 20:04 25,0 C 22,6 C 0,7 UV-I 0,0 C 44 % 47 % 0 % 1021,1 hPa 0,0 l/m 1,0 km/h (0 Bft) 0 min 0,0 km/h (0 Bft)
28.07.2009 20:06 25,0 C 22,7 C 0,7 UV-I 0,0 C 44 % 47 % 0 % 1021,1 hPa 0,0 l/m 1,2 km/h (1 Bft) 0 min 2,6 km/h (1 Bft)
28.07.2009 20:08 25,0 C 22,6 C 0,7 UV-I 0,0 C 44 % 47 % 0 % 1021,1 hPa 0,0 l/m 1,7 km/h (1 Bft) 0 min 3,8 km/h (1 Bft)
28.07.2009 20:10 25,0 C 22,5 C 0,7 UV-I 0,0 C 44 % 47 % 0 % 1021,1 hPa 0,0 l/m 1,7 km/h (1 Bft) 0 min 3,8 km/h (1 Bft)
28.07.2009 20:12 25,0 C 22,5 C 0,6 UV-I 0,0 C 44 % 47 % 0 % 1021,1 hPa 0,0 l/m 1,2 km/h (1 Bft) 0 min 0,0 km/h (0 Bft)
28.07.2009 20:14 24,9 C 22,4 C 0,6 UV-I 0,0 C 45 % 48 % 0 % 1021,1 hPa 0,0 l/m 1,2 km/h (1 Bft) 0 min 3,4 km/h (1 Bft)
28.07.2009 20:16 24,9 C 22,4 C 0,6 UV-I 0,0 C 45 % 47 % 0 % 1021,0 hPa 0,0 l/m 1,7 km/h (1 Bft) 0 min 6,5 km/h (2 Bft)
28.07.2009 20:18 24,9 C 22,4 C 0,6 UV-I 0,0 C 45 % 47 % 0 % 1021,0 hPa 0,0 l/m 2,2 km/h (1 Bft) 0 min 6,5 km/h (2 Bft)
28.07.2009 20:20 24,9 C 22,5 C 0,6 UV-I 0,0 C 45 % 48 % 0 % 1021,0 hPa 0,0 l/m 1,7 km/h (1 Bft) 0 min 3,8 km/h (1 Bft)
28.07.2009 20:22 24,9 C 22,3 C 0,6 UV-I 0,0 C 45 % 49 % 0 % 1021,0 hPa 0,0 l/m 1,9 km/h (1 Bft) 0 min 0,0 km/h (0 Bft)
28.07.2009 20:24 24,8 C 22,3 C 0,6 UV-I 0,0 C 45 % 49 % 0 % 1021,0 hPa 0,0 l/m 1,7 km/h (1 Bft) 0 min 0,0 km/h (0 Bft)
28.07.2009 20:26 24,8 C 22,2 C 0,5 UV-I 0,0 C 45 % 49 % 0 % 1021,0 hPa 0,0 l/m 1,4 km/h (1 Bft) 0 min 0,0 km/h (0 Bft)
28.07.2009 20:28 24,8 C 22,3 C 0,5 UV-I 0,0 C 45 % 49 % 0 % 1021,0 hPa 0,0 l/m 0,5 km/h (0 Bft) 0 min 0,0 km/h (0 Bft)
28.07.2009 20:30 24,8 C 22,1 C 0,5 UV-I 0,0 C 45 % 51 % 0 % 1021,0 hPa 0,0 l/m 0,2 km/h (0 Bft) 0 min 0,0 km/h (0 Bft)
28.07.2009 20:32 24,8 C 22,0 C 0,4 UV-I 0,0 C 45 % 53 % 0 % 1021,0 hPa 0,0 l/m 0,2 km/h (0 Bft) 0 min 0,0 km/h (0 Bft)
28.07.2009 20:34 24,8 C 22,1 C 0,4 UV-I 0,0 C 45 % 52 % 0 % 1021,0 hPa 0,0 l/m 0,0 km/h (0 Bft) 0 min 0,0 km/h (0 Bft)
28.07.2009 20:36 24,8 C 21,9 C 0,4 UV-I 0,0 C 45 % 54 % 0 % 1021,2 hPa 0,0 l/m 0,0 km/h (0 Bft) 0 min 0,0 km/h (0 Bft)
28.07.2009 20:38 24,8 C 21,9 C 0,4 UV-I 0,0 C 46 % 53 % 0 % 1021,2 hPa 0,0 l/m 0,0 km/h (0 Bft) 0 min 0,0 km/h (0 Bft)
28.07.2009 20:40 24,8 C 21,7 C 0,4 UV-I 0,0 C 46 % 54 % 0 % 1021,2 hPa 0,0 l/m 0,0 km/h (0 Bft) 0 min 0,0 km/h (0 Bft)
28.07.2009 20:44 24,7 C 21,5 C 0,2 UV-I 0,0 C 46 % 53 % 0 % 1021,2 hPa 0,0 l/m 0,0 km/h (0 Bft) 0 min 0,0 km/h (0 Bft)
28.07.2009 20:46 24,7 C 21,4 C 0,2 UV-I 0,0 C 46 % 53 % 0 % 1021,2 hPa 0,0 l/m 0,0 km/h (0 Bft) 0 min 0,0 km/h (0 Bft)
28.07.2009 20:48 24,7 C 21,4 C 0,2 UV-I 0,0 C 46 % 53 % 0 % 1021,2 hPa 0,0 l/m 0,0 km/h (0 Bft) 0 min 0,0 km/h (0 Bft)
28.07.2009 20:50 24,7 C 21,3 C 0,2 UV-I 0,0 C 46 % 53 % 0 % 1021,2 hPa 0,0 l/m 0,0 km/h (0 Bft) 0 min 0,0 km/h (0 Bft)
28.07.2009 20:52 24,7 C 21,2 C 0,2 UV-I 0,0 C 46 % 55 % 0 % 1021,2 hPa 0,0 l/m 0,0 km/h (0 Bft) 0 min 0,0 km/h (0 Bft)
28.07.2009 20:54 24,7 C 21,2 C 0,2 UV-I 0,0 C 46 % 55 % 0 % 1021,2 hPa 0,0 l/m 0,0 km/h (0 Bft) 0 min 0,0 km/h (0 Bft)
28.07.2009 20:58 24,6 C 21,1 C 0,1 UV-I 0,0 C 47 % 56 % 0 % 1021,3 hPa 0,0 l/m 0,0 km/h (0 Bft) 0 min 0,0 km/h (0 Bft)
28.07.2009 21:00 24,6 C 21,1 C 0,1 UV-I 0,0 C 47 % 57 % 0 % 1021,3 hPa 0,0 l/m 0,0 km/h (0 Bft) 0 min 0,0 km/h (0 Bft)
28.07.2009 21:02 24,6 C 21,0 C 0,0 UV-I 0,0 C 47 % 57 % 0 % 1021,3 hPa 0,0 l/m 0,0 km/h (0 Bft) 0 min 0,0 km/h (0 Bft)
28.07.2009 21:04 24,6 C 20,9 C 0,0 UV-I 0,0 C 47 % 57 % 0 % 1021,3 hPa 0,0 l/m 0,0 km/h (0 Bft) 0 min 0,0 km/h (0 Bft)
28.07.2009 21:06 24,6 C 20,9 C 0,0 UV-I 0,0 C 47 % 56 % 0 % 1021,3 hPa 0,0 l/m 0,0 km/h (0 Bft) 0 min 0,0 km/h (0 Bft)
28.07.2009 21:08 24,6 C 20,9 C 0,0 UV-I 0,0 C 47 % 56 % 0 % 1021,3 hPa 0,0 l/m 0,0 km/h (0 Bft) 0 min 0,0 km/h (0 Bft)
28.07.2009 21:10 24,5 C 20,8 C 0,0 UV-I 0,0 C 47 % 57 % 0 % 1021,3 hPa 0,0 l/m 0,0 km/h (0 Bft) 0 min 0,0 km/h (0 Bft)
28.07.2009 21:12 24,5 C 20,8 C 0,0 UV-I 0,0 C 48 % 57 % 0 % 1021,3 hPa 0,0 l/m 0,0 km/h (0 Bft) 0 min 0,0 km/h (0 Bft)
28.07.2009 21:14 24,5 C 20,7 C 0,0 UV-I 0,0 C 48 % 57 % 0 % 1021,3 hPa 0,0 l/m 0,0 km/h (0 Bft) 0 min 0,0 km/h (0 Bft)
28.07.2009 21:16 24,5 C 20,7 C 0,0 UV-I 0,0 C 48 % 57 % 0 % 1021,3 hPa 0,0 l/m 0,0 km/h (0 Bft) 0 min 0,0 km/h (0 Bft)
28.07.2009 21:18 24,4 C 20,7 C 0,0 UV-I 0,0 C 48 % 58 % 0 % 1021,3 hPa 0,0 l/m 0,0 km/h (0 Bft) 0 min 0,0 km/h (0 Bft)
28.07.2009 21:20 24,4 C 20,6 C 0,0 UV-I 0,0 C 48 % 58 % 0 % 1021,3 hPa 0,0 l/m 0,0 km/h (0 Bft) 0 min 0,0 km/h (0 Bft)
28.07.2009 21:22 24,4 C 20,5 C 0,0 UV-I 0,0 C 48 % 58 % 0 % 1021,3 hPa 0,0 l/m 0,0 km/h (0 Bft) 0 min 0,0 km/h (0 Bft)
28.07.2009 21:24 24,4 C 20,4 C 0,0 UV-I 0,0 C 48 % 58 % 0 % 1021,3 hPa 0,0 l/m 0,0 km/h (0 Bft) 0 min 0,0 km/h (0 Bft)
28.07.2009 21:26 24,4 C 20,5 C 0,0 UV-I 0,0 C 48 % 58 % 0 % 1021,3 hPa 0,0 l/m 0,0 km/h (0 Bft) 0 min 0,0 km/h (0 Bft)
28.07.2009 21:28 24,4 C 20,4 C 0,0 UV-I 0,0 C 48 % 59 % 0 % 1021,3 hPa 0,0 l/m 0,0 km/h (0 Bft) 0 min 0,0 km/h (0 Bft)
28.07.2009 21:30 24,4 C 20,3 C 0,0 UV-I 0,0 C 48 % 60 % 0 % 1021,3 hPa 0,0 l/m 0,0 km/h (0 Bft) 0 min 0,0 km/h (0 Bft)
28.07.2009 21:32 24,4 C 20,3 C 0,0 UV-I 0,0 C 49 % 60 % 0 % 1021,3 hPa 0,0 l/m 0,0 km/h (0 Bft) 0 min 0,0 km/h (0 Bft)
28.07.2009 21:34 24,4 C 20,3 C 0,0 UV-I 0,0 C 49 % 60 % 0 % 1021,3 hPa 0,0 l/m 0,0 km/h (0 Bft) 0 min 0,0 km/h (0 Bft)
28.07.2009 21:36 24,2 C 20,2 C 0,0 UV-I 0,0 C 49 % 60 % 0 % 1021,6 hPa 0,0 l/m 0,0 km/h (0 Bft) 0 min 0,0 km/h (0 Bft)
28.07.2009 21:38 24,3 C 20,0 C 0,0 UV-I 0,0 C 49 % 61 % 0 % 1021,6 hPa 0,0 l/m 0,0 km/h (0 Bft) 0 min 0,0 km/h (0 Bft)
28.07.2009 21:40 24,3 C 20,1 C 0,0 UV-I 0,0 C 49 % 61 % 0 % 1021,6 hPa 0,0 l/m 0,0 km/h (0 Bft) 0 min 0,0 km/h (0 Bft)
28.07.2009 21:42 24,3 C 19,9 C 0,0 UV-I 0,0 C 49 % 61 % 0 % 1021,6 hPa 0,0 l/m 0,0 km/h (0 Bft) 0 min 0,0 km/h (0 Bft)
28.07.2009 21:44 24,2 C 19,9 C 0,0 UV-I 0,0 C 49 % 62 % 0 % 1021,6 hPa 0,0 l/m 0,0 km/h (0 Bft) 0 min 0,0 km/h (0 Bft)
28.07.2009 21:46 24,2 C 19,8 C 0,0 UV-I 0,0 C 49 % 63 % 0 % 1021,6 hPa 0,0 l/m 0,0 km/h (0 Bft) 0 min 0,0 km/h (0 Bft)
28.07.2009 21:48 24,2 C 19,8 C 0,0 UV-I 0,0 C 50 % 63 % 0 % 1021,6 hPa 0,0 l/m 0,0 km/h (0 Bft) 0 min 0,0 km/h (0 Bft)
28.07.2009 21:50 24,2 C 19,7 C 0,0 UV-I 0,0 C 50 % 64 % 0 % 1021,6 hPa 0,0 l/m 0,0 km/h (0 Bft) 0 min 0,0 km/h (0 Bft)
28.07.2009 21:52 24,2 C 19,6 C 0,0 UV-I 0,0 C 50 % 64 % 0 % 1021,6 hPa 0,0 l/m 0,0 km/h (0 Bft) 0 min 0,0 km/h (0 Bft)
28.07.2009 21:54 24,1 C 19,7 C 0,0 UV-I 0,0 C 50 % 65 % 0 % 1021,6 hPa 0,0 l/m 0,0 km/h (0 Bft) 0 min 0,0 km/h (0 Bft)
28.07.2009 21:56 24,1 C 19,5 C 0,0 UV-I 0,0 C 50 % 65 % 0 % 1021,5 hPa 0,0 l/m 0,0 km/h (0 Bft) 0 min 0,0 km/h (0 Bft)
28.07.2009 22:00 24,1 C 19,5 C 0,0 UV-I 0,0 C 50 % 66 % 0 % 1021,5 hPa 0,0 l/m 0,0 km/h (0 Bft) 0 min 0,0 km/h (0 Bft)
28.07.2009 22:02 24,0 C 19,3 C 0,0 UV-I 0,0 C 51 % 65 % 0 % 1021,5 hPa 0,0 l/m 0,0 km/h (0 Bft) 0 min 0,0 km/h (0 Bft)
28.07.2009 22:04 24,0 C 19,2 C 0,0 UV-I 0,0 C 51 % 65 % 0 % 1021,5 hPa 0,0 l/m 0,0 km/h (0 Bft) 0 min 0,0 km/h (0 Bft)
28.07.2009 22:06 24,0 C 19,3 C 0,0 UV-I 0,0 C 51 % 66 % 0 % 1021,5 hPa 0,0 l/m 0,0 km/h (0 Bft) 0 min 0,0 km/h (0 Bft)
28.07.2009 22:08 24,0 C 19,1 C 0,0 UV-I 0,0 C 51 % 66 % 0 % 1021,5 hPa 0,0 l/m 0,0 km/h (0 Bft) 0 min 0,0 km/h (0 Bft)
28.07.2009 22:10 24,0 C 19,1 C 0,0 UV-I 0,0 C 51 % 66 % 0 % 1021,5 hPa 0,0 l/m 0,0 km/h (0 Bft) 0 min 0,0 km/h (0 Bft)
28.07.2009 22:12 24,0 C 19,1 C 0,0 UV-I 0,0 C 51 % 67 % 0 % 1021,5 hPa 0,0 l/m 0,0 km/h (0 Bft) 0 min 0,0 km/h (0 Bft)
28.07.2009 22:14 24,0 C 18,9 C 0,0 UV-I 0,0 C 51 % 67 % 0 % 1021,5 hPa 0,0 l/m 0,0 km/h (0 Bft) 0 min 0,0 km/h (0 Bft)
28.07.2009 22:16 23,9 C 18,9 C 0,0 UV-I 0,0 C 51 % 67 % 0 % 1021,9 hPa 0,0 l/m 0,0 km/h (0 Bft) 0 min 0,0 km/h (0 Bft)
28.07.2009 22:20 23,9 C 18,9 C 0,0 UV-I 0,0 C 52 % 67 % 0 % 1021,9 hPa 0,0 l/m 0,0 km/h (0 Bft) 0 min 0,0 km/h (0 Bft)
28.07.2009 22:22 23,8 C 18,7 C 0,0 UV-I 0,0 C 52 % 67 % 0 % 1021,9 hPa 0,0 l/m 0,0 km/h (0 Bft) 0 min 0,0 km/h (0 Bft)
28.07.2009 22:24 23,8 C 18,6 C 0,0 UV-I 0,0 C 52 % 67 % 0 % 1021,9 hPa 0,0 l/m 0,0 km/h (0 Bft) 0 min 0,0 km/h (0 Bft)
28.07.2009 22:26 23,8 C 18,7 C 0,0 UV-I 0,0 C 52 % 67 % 0 % 1021,9 hPa 0,0 l/m 0,0 km/h (0 Bft) 0 min 0,0 km/h (0 Bft)
28.07.2009 22:28 23,8 C 18,5 C 0,0 UV-I 0,0 C 52 % 67 % 0 % 1021,9 hPa 0,0 l/m 0,0 km/h (0 Bft) 0 min 0,0 km/h (0 Bft)
28.07.2009 22:30 23,8 C 18,5 C 0,0 UV-I 0,0 C 52 % 67 % 0 % 1021,9 hPa 0,0 l/m 0,0 km/h (0 Bft) 0 min 0,0 km/h (0 Bft)
28.07.2009 22:32 23,8 C 18,4 C 0,0 UV-I 0,0 C 52 % 68 % 0 % 1021,9 hPa 0,0 l/m 0,0 km/h (0 Bft) 0 min 0,0 km/h (0 Bft)
28.07.2009 22:34 23,8 C 18,5 C 0,0 UV-I 0,0 C 52 % 68 % 0 % 1021,9 hPa 0,0 l/m 0,0 km/h (0 Bft) 0 min 0,0 km/h (0 Bft)
28.07.2009 22:36 23,7 C 18,4 C 0,0 UV-I 0,0 C 52 % 68 % 0 % 1021,3 hPa 0,0 l/m 0,0 km/h (0 Bft) 0 min 0,0 km/h (0 Bft)
28.07.2009 22:38 23,7 C 18,3 C 0,0 UV-I 0,0 C 52 % 68 % 0 % 1021,3 hPa 0,0 l/m 0,0 km/h (0 Bft) 0 min 0,0 km/h (0 Bft)
28.07.2009 22:40 23,7 C 18,2 C 0,0 UV-I 0,0 C 52 % 69 % 0 % 1021,3 hPa 0,0 l/m 0,0 km/h (0 Bft) 0 min 0,0 km/h (0 Bft)
28.07.2009 22:42 23,6 C 18,3 C 0,0 UV-I 0,0 C 52 % 69 % 0 % 1021,3 hPa 0,0 l/m 0,0 km/h (0 Bft) 0 min 0,0 km/h (0 Bft)
28.07.2009 22:44 23,6 C 18,1 C 0,0 UV-I 0,0 C 52 % 69 % 0 % 1021,3 hPa 0,0 l/m 0,0 km/h (0 Bft) 0 min 0,0 km/h (0 Bft)
28.07.2009 22:46 23,6 C 18,1 C 0,0 UV-I 0,0 C 52 % 69 % 0 % 1021,3 hPa 0,0 l/m 0,0 km/h (0 Bft) 0 min 0,0 km/h (0 Bft)
28.07.2009 22:48 23,6 C 18,0 C 0,0 UV-I 0,0 C 52 % 69 % 0 % 1021,3 hPa 0,0 l/m 0,0 km/h (0 Bft) 0 min 0,0 km/h (0 Bft)
28.07.2009 22:50 23,6 C 18,0 C 0,0 UV-I 0,0 C 52 % 69 % 0 % 1021,3 hPa 0,0 l/m 0,0 km/h (0 Bft) 0 min 0,0 km/h (0 Bft)
28.07.2009 22:52 23,6 C 18,0 C 0,0 UV-I 0,0 C 52 % 69 % 0 % 1021,3 hPa 0,0 l/m 0,0 km/h (0 Bft) 0 min 0,0 km/h (0 Bft)
28.07.2009 22:54 23,6 C 17,9 C 0,0 UV-I 0,0 C 52 % 69 % 0 % 1021,3 hPa 0,0 l/m 0,0 km/h (0 Bft) 0 min 0,0 km/h (0 Bft)
28.07.2009 22:56 23,6 C 17,8 C 0,0 UV-I 0,0 C 53 % 69 % 0 % 1021,1 hPa 0,0 l/m 0,0 km/h (0 Bft) 0 min 0,0 km/h (0 Bft)
28.07.2009 22:58 23,5 C 17,9 C 0,0 UV-I 0,0 C 52 % 69 % 0 % 1021,1 hPa 0,0 l/m 0,0 km/h (0 Bft) 0 min 0,0 km/h (0 Bft)
28.07.2009 23:00 23,5 C 17,7 C 0,0 UV-I 0,0 C 52 % 69 % 0 % 1021,1 hPa 0,0 l/m 0,0 km/h (0 Bft) 0 min 0,0 km/h (0 Bft)
28.07.2009 23:02 23,5 C 17,7 C 0,0 UV-I 0,0 C 52 % 69 % 0 % 1021,1 hPa 0,0 l/m 0,0 km/h (0 Bft) 0 min 0,0 km/h (0 Bft)
28.07.2009 23:04 23,5 C 17,6 C 0,0 UV-I 0,0 C 52 % 69 % 0 % 1021,1 hPa 0,0 l/m 0,0 km/h (0 Bft) 0 min 0,0 km/h (0 Bft)
28.07.2009 23:06 23,5 C 17,6 C 0,0 UV-I 0,0 C 52 % 69 % 0 % 1021,1 hPa 0,0 l/m 0,0 km/h (0 Bft) 0 min 0,0 km/h (0 Bft)
28.07.2009 23:08 23,5 C 17,7 C 0,0 UV-I 0,0 C 52 % 68 % 0 % 1021,1 hPa 0,0 l/m 0,0 km/h (0 Bft) 0 min 0,0 km/h (0 Bft)
28.07.2009 23:10 23,4 C 17,6 C 0,0 UV-I 0,0 C 52 % 68 % 0 % 1021,1 hPa 0,0 l/m 0,0 km/h (0 Bft) 0 min 0,0 km/h (0 Bft)
28.07.2009 23:12 23,4 C 17,6 C 0,0 UV-I 0,0 C 52 % 68 % 0 % 1021,1 hPa 0,0 l/m 0,0 km/h (0 Bft) 0 min 0,0 km/h (0 Bft)
28.07.2009 23:14 23,4 C 17,5 C 0,0 UV-I 0,0 C 52 % 69 % 0 % 1021,1 hPa 0,0 l/m 0,0 km/h (0 Bft) 0 min 0,0 km/h (0 Bft)
28.07.2009 23:16 23,4 C 17,4 C 0,0 UV-I 0,0 C 52 % 69 % 0 % 1021,3 hPa 0,0 l/m 0,0 km/h (0 Bft) 0 min 0,0 km/h (0 Bft)
28.07.2009 23:18 23,4 C 17,5 C 0,0 UV-I 0,0 C 52 % 69 % 0 % 1021,3 hPa 0,0 l/m 0,0 km/h (0 Bft) 0 min 0,0 km/h (0 Bft)
28.07.2009 23:20 23,4 C 17,5 C 0,0 UV-I 0,0 C 52 % 69 % 0 % 1021,3 hPa 0,0 l/m 0,0 km/h (0 Bft) 0 min 0,0 km/h (0 Bft)
28.07.2009 23:22 23,4 C 17,4 C 0,0 UV-I 0,0 C 52 % 70 % 0 % 1021,3 hPa 0,0 l/m 0,0 km/h (0 Bft) 0 min 0,0 km/h (0 Bft)
28.07.2009 23:24 23,2 C 17,3 C 0,0 UV-I 0,0 C 52 % 70 % 0 % 1021,3 hPa 0,0 l/m 0,0 km/h (0 Bft) 0 min 0,0 km/h (0 Bft)
28.07.2009 23:26 23,2 C 17,3 C 0,0 UV-I 0,0 C 52 % 70 % 0 % 1021,3 hPa 0,0 l/m 0,0 km/h (0 Bft) 0 min 0,0 km/h (0 Bft)
28.07.2009 23:28 23,3 C 17,2 C 0,0 UV-I 0,0 C 53 % 71 % 0 % 1021,3 hPa 0,0 l/m 0,0 km/h (0 Bft) 0 min 0,0 km/h (0 Bft)
28.07.2009 23:30 23,3 C 17,3 C 0,0 UV-I 0,0 C 52 % 71 % 0 % 1021,3 hPa 0,0 l/m 0,0 km/h (0 Bft) 0 min 0,0 km/h (0 Bft)
28.07.2009 23:32 23,3 C 17,2 C 0,0 UV-I 0,0 C 53 % 72 % 0 % 1021,3 hPa 0,0 l/m 0,0 km/h (0 Bft) 0 min 0,0 km/h (0 Bft)
28.07.2009 23:34 23,3 C 17,1 C 0,0 UV-I 0,0 C 53 % 72 % 0 % 1021,3 hPa 0,0 l/m 0,0 km/h (0 Bft) 0 min 0,0 km/h (0 Bft)
28.07.2009 23:36 23,2 C 17,1 C 0,0 UV-I 0,0 C 53 % 72 % 0 % 1020,2 hPa 0,0 l/m 0,0 km/h (0 Bft) 0 min 0,0 km/h (0 Bft)
28.07.2009 23:38 23,2 C 17,0 C 0,0 UV-I 0,0 C 53 % 72 % 0 % 1020,2 hPa 0,0 l/m 0,0 km/h (0 Bft) 0 min 0,0 km/h (0 Bft)
28.07.2009 23:40 23,2 C 17,1 C 0,0 UV-I 0,0 C 53 % 72 % 0 % 1020,2 hPa 0,0 l/m 0,0 km/h (0 Bft) 0 min 0,0 km/h (0 Bft)
28.07.2009 23:42 23,2 C 17,0 C 0,0 UV-I 0,0 C 53 % 72 % 0 % 1020,2 hPa 0,0 l/m 0,0 km/h (0 Bft) 0 min 0,0 km/h (0 Bft)
28.07.2009 23:44 23,2 C 17,0 C 0,0 UV-I 0,0 C 53 % 72 % 0 % 1020,2 hPa 0,0 l/m 0,0 km/h (0 Bft) 0 min 0,0 km/h (0 Bft)
28.07.2009 23:46 23,2 C 16,9 C 0,0 UV-I 0,0 C 53 % 72 % 0 % 1020,2 hPa 0,0 l/m 0,0 km/h (0 Bft) 0 min 0,0 km/h (0 Bft)
28.07.2009 23:48 23,2 C 16,9 C 0,0 UV-I 0,0 C 53 % 72 % 0 % 1020,2 hPa 0,0 l/m 0,0 km/h (0 Bft) 0 min 0,0 km/h (0 Bft)
28.07.2009 23:50 23,2 C 16,8 C 0,0 UV-I 0,0 C 53 % 73 % 0 % 1020,2 hPa 0,0 l/m 0,0 km/h (0 Bft) 0 min 0,0 km/h (0 Bft)
28.07.2009 23:52 23,2 C 16,9 C 0,0 UV-I 0,0 C 53 % 73 % 0 % 1020,2 hPa 0,0 l/m 0,0 km/h (0 Bft) 0 min 0,0 km/h (0 Bft)
28.07.2009 23:54 23,1 C 16,8 C 0,0 UV-I 0,0 C 53 % 73 % 0 % 1020,2 hPa 0,0 l/m 0,0 km/h (0 Bft) 0 min 0,0 km/h (0 Bft)
28.07.2009 23:56 23,2 C 16,7 C 0,0 UV-I 0,0 C 53 % 73 % 0 % 1020,8 hPa 0,0 l/m 0,0 km/h (0 Bft) 0 min 0,0 km/h (0 Bft)
28.07.2009 23:58 23,1 C 16,7 C 0,0 UV-I 0,0 C 53 % 73 % 0 % 1020,8 hPa 0,0 l/m 0,0 km/h (0 Bft) 0 min 0,0 km/h (0 Bft)
_ Min-Zeit 06:10 06:10 00:00 00:00 17:50 16:32 00:00 00:00 - 00:28 - 00:00
Minimum _ 20,8 C 13,1 C 0,0 UV-I 0,0 C 43 % 40 % 0 % 1017,1 hPa - 0,0 km/h (0 Bft) - 0,0 km/h (0 Bft)
_ Max-Zeit 18:10 16:56 10:56 11:04 08:58 06:08 10:00 14:36 00:00 12:52 09:58 13:18
Maximum _ 26,0 C 25,9 C 13,6 UV-I 5,8 C 59 % 86 % 100 % 1022,4 hPa 0,0 l/m 7,5 km/h
NW (2 Bft)
2 min 22,4 km/h
SW (4 Bft)
Durchschnitt _ 22,8 C 18,7 C 2,6 UV-I 1,4 C 52 % 66 % 36 % 1020,5 hPa #0,0 l/m 2,3 km/h (1 Bft) #6:08 h 4,8 km/h (1 Bft)
© 2012 W. Hausmann